Time,TemperatureF,DewpointF,PressureIn,WindDirection,WindDirectionDegrees,WindSpeedMPH,WindSpeedGustMPH,Humidity,HourlyPrecipIn,Conditions,Clouds,dailyrainin,SoftwareType,DateUTC
2013-04-23 00:02:00,41.1,35.1,30.38,SSW,212,1.0,1.0,79,0.00,,,0.00,Wunderground v.1.15,2013-04-23 04:02:00,
2013-04-23 00:03:00,41.1,35.1,30.38,WSW,257,2.0,2.0,79,0.00,,,0.00,Wunderground v.1.15,2013-04-23 04:03:00,
2013-04-23 00:06:00,40.9,34.9,30.38,NE,44,1.0,2.0,79,0.00,,,0.00,Wunderground v.1.15,2013-04-23 04:06:00,
2013-04-23 00:07:00,40.6,34.6,30.38,East,82,2.0,2.0,79,0.00,,,0.00,Wunderground v.1.15,2013-04-23 04:07:00,
2013-04-23 00:10:00,40.5,34.8,30.38,ESE,123,1.0,1.0,80,0.00,,,0.00,Wunderground v.1.15,2013-04-23 04:10:00,
2013-04-23 00:11:00,40.4,34.7,30.38,ESE,123,0.0,1.0,80,0.00,,,0.00,Wunderground v.1.15,2013-04-23 04:11:00,
2013-04-23 00:15:00,40.6,35.2,30.38,NNW,335,2.0,2.0,81,0.00,,,0.00,Wunderground v.1.15,2013-04-23 04:15:00,
2013-04-23 00:16:00,40.6,35.2,30.37,WNW,303,1.0,2.0,81,0.00,,,0.00,Wunderground v.1.15,2013-04-23 04:16:00,
2013-04-23 00:17:00,40.8,35.1,30.38,WNW,285,1.0,2.0,80,0.00,,,0.00,Wunderground v.1.15,2013-04-23 04:17:00,
2013-04-23 00:18:00,40.9,35.2,30.38,WNW,284,0.0,2.0,80,0.00,,,0.00,Wunderground v.1.15,2013-04-23 04:18:00,
2013-04-23 00:20:00,40.8,35.1,30.38,WNW,285,1.0,1.0,80,0.00,,,0.00,Wunderground v.1.15,2013-04-23 04:20:00,
2013-04-23 00:24:00,40.9,35.2,30.37,WNW,295,0.0,1.0,80,0.00,,,0.00,Wunderground v.1.15,2013-04-23 04:24:00,
2013-04-23 00:26:00,40.9,35.2,30.37,WNW,284,1.0,1.0,80,0.00,,,0.00,Wunderground v.1.15,2013-04-23 04:26:00,
2013-04-23 00:30:00,41.4,35.7,30.37,WNW,302,0.0,1.0,80,0.00,,,0.00,Wunderground v.1.15,2013-04-23 04:30:00,
2013-04-23 00:33:00,41.4,35.4,30.37,WNW,302,0.0,1.0,79,0.00,,,0.00,Wunderground v.1.15,2013-04-23 04:33:00,
2013-04-23 00:34:00,41.4,35.4,30.37,WNW,300,3.0,3.0,79,0.00,,,0.00,Wunderground v.1.15,2013-04-23 04:34:00,
2013-04-23 00:36:00,41.4,35.4,30.37,West,264,1.0,3.0,79,0.00,,,0.00,Wunderground v.1.15,2013-04-23 04:36:00,
2013-04-23 00:37:00,41.5,35.5,30.37,WNW,288,2.0,3.0,79,0.00,,,0.00,Wunderground v.1.15,2013-04-23 04:37:00,
2013-04-23 00:39:00,41.5,35.5,30.37,WNW,302,3.0,3.0,79,0.00,,,0.00,Wunderground v.1.15,2013-04-23 04:39:00,
2013-04-23 00:42:00,41.7,35.7,30.37,NNW,347,2.0,3.0,79,0.00,,,0.00,Wunderground v.1.15,2013-04-23 04:42:00,
2013-04-23 00:43:00,41.7,35.7,30.37,North,9,2.0,3.0,79,0.00,,,0.00,Wunderground v.1.15,2013-04-23 04:43:00,
2013-04-23 00:47:00,41.7,35.3,30.37,NW,309,2.0,3.0,78,0.00,,,0.00,Wunderground v.1.15,2013-04-23 04:47:00,
2013-04-23 00:49:00,41.8,35.4,30.37,NNW,342,2.0,3.0,78,0.00,,,0.00,Wunderground v.1.15,2013-04-23 04:49:00,
2013-04-23 00:50:00,41.8,35.4,30.37,NW,318,2.0,3.0,78,0.00,,,0.00,Wunderground v.1.15,2013-04-23 04:50:00,
2013-04-23 00:51:00,41.8,35.4,30.37,NW,314,4.0,4.0,78,0.00,,,0.00,Wunderground v.1.15,2013-04-23 04:51:00,
2013-04-23 00:55:00,41.8,35.4,30.37,NNW,340,1.0,4.0,78,0.00,,,0.00,Wunderground v.1.15,2013-04-23 04:55:00,
2013-04-23 00:58:00,41.8,35.4,30.37,NW,318,2.0,4.0,78,0.00,,,0.00,Wunderground v.1.15,2013-04-23 04:58:00,
2013-04-23 00:59:00,41.7,35.3,30.37,NW,311,2.0,4.0,78,0.00,,,0.00,Wunderground v.1.15,2013-04-23 04:59:00,
2013-04-23 01:02:00,41.7,35.3,30.36,NW,314,2.0,3.0,78,0.00,,,0.00,Wunderground v.1.15,2013-04-23 05:02:00,
2013-04-23 01:03:00,41.7,35.3,30.36,NNW,333,1.0,3.0,78,0.00,,,0.00,Wunderground v.1.15,2013-04-23 05:03:00,
2013-04-23 01:05:00,41.6,35.2,30.36,NNW,333,1.0,3.0,78,0.00,,,0.00,Wunderground v.1.15,2013-04-23 05:05:00,
2013-04-23 01:07:00,41.5,35.2,30.36,NW,314,2.0,3.0,78,0.00,,,0.00,Wunderground v.1.15,2013-04-23 05:07:00,
2013-04-23 01:11:00,41.4,35.4,30.36,NW,318,1.0,2.0,79,0.00,,,0.00,Wunderground v.1.15,2013-04-23 05:11:00,
2013-04-23 01:13:00,41.4,35.4,30.36,North,355,1.0,2.0,79,0.00,,,0.00,Wunderground v.1.15,2013-04-23 05:13:00,
2013-04-23 01:14:00,41.4,35.4,30.36,North,355,0.0,2.0,79,0.00,,,0.00,Wunderground v.1.15,2013-04-23 05:14:00,
2013-04-23 01:17:00,41.3,35.3,30.37,North,355,0.0,2.0,79,0.00,,,0.00,Wunderground v.1.15,2013-04-23 05:17:00,
2013-04-23 01:20:00,41.1,35.1,30.36,WNW,302,0.0,1.0,79,0.00,,,0.00,Wunderground v.1.15,2013-04-23 05:20:00,
2013-04-23 01:22:00,40.9,34.9,30.36,WNW,302,0.0,1.0,79,0.00,,,0.00,Wunderground v.1.15,2013-04-23 05:22:00,
2013-04-23 01:26:00,40.6,34.9,30.36,WNW,302,0.0,1.0,80,0.00,,,0.00,Wunderground v.1.15,2013-04-23 05:26:00,
2013-04-23 01:28:00,40.4,34.7,30.36,WNW,302,0.0,1.0,80,0.00,,,0.00,Wunderground v.1.15,2013-04-23 05:28:00,
2013-04-23 01:32:00,40.1,35.0,30.37,NW,319,1.0,1.0,82,0.00,,,0.00,Wunderground v.1.15,2013-04-23 05:32:00,
2013-04-23 01:34:00,40.3,35.2,30.36,WNW,294,1.0,2.0,82,0.00,,,0.00,Wunderground v.1.15,2013-04-23 05:34:00,
2013-04-23 01:35:00,40.3,35.2,30.36,NW,318,2.0,2.0,82,0.00,,,0.00,Wunderground v.1.15,2013-04-23 05:35:00,
2013-04-23 01:38:00,40.4,35.0,30.36,SW,224,2.0,2.0,81,0.00,,,0.00,Wunderground v.1.15,2013-04-23 05:38:00,
2013-04-23 01:39:00,40.4,35.0,30.36,West,278,0.0,2.0,81,0.00,,,0.00,Wunderground v.1.15,2013-04-23 05:39:00,
2013-04-23 01:41:00,40.4,35.0,30.36,West,278,0.0,1.0,81,0.00,,,0.00,Wunderground v.1.15,2013-04-23 05:41:00,
2013-04-23 01:43:00,40.3,34.9,30.36,NW,305,1.0,1.0,81,0.00,,,0.00,Wunderground v.1.15,2013-04-23 05:43:00,
2013-04-23 01:45:00,40.3,34.9,30.36,North,8,2.0,2.0,81,0.00,,,0.00,Wunderground v.1.15,2013-04-23 05:45:00,
2013-04-23 01:47:00,40.5,35.4,30.36,NW,322,0.0,2.0,82,0.00,,,0.00,Wunderground v.1.15,2013-04-23 05:47:00,
2013-04-23 01:50:00,40.6,35.5,30.36,WNW,302,2.0,2.0,82,0.00,,,0.00,Wunderground v.1.15,2013-04-23 05:50:00,
2013-04-23 01:51:00,40.7,35.6,30.36,WNW,302,1.0,2.0,82,0.00,,,0.00,Wunderground v.1.15,2013-04-23 05:51:00,
2013-04-23 01:52:00,40.7,35.6,30.36,NW,319,1.0,2.0,82,0.00,,,0.00,Wunderground v.1.15,2013-04-23 05:52:00,
2013-04-23 01:53:00,40.8,35.7,30.36,NW,319,1.0,2.0,82,0.00,,,0.00,Wunderground v.1.15,2013-04-23 05:53:00,
2013-04-23 01:54:00,40.8,35.7,30.36,NNE,32,2.0,2.0,82,0.00,,,0.00,Wunderground v.1.15,2013-04-23 05:54:00,
2013-04-23 01:59:00,41.1,36.0,30.35,NE,36,3.0,4.0,82,0.00,,,0.00,Wunderground v.1.15,2013-04-23 05:59:00,
2013-04-23 02:00:00,41.2,35.8,30.35,NNE,16,5.0,5.0,81,0.00,,,0.00,Wunderground v.1.15,2013-04-23 06:00:00,
2013-04-23 02:04:00,41.4,36.0,30.35,North,351,3.0,7.0,81,0.00,,,0.00,Wunderground v.1.15,2013-04-23 06:04:00,
2013-04-23 02:05:00,41.4,36.0,30.35,NW,316,2.0,7.0,81,0.00,,,0.00,Wunderground v.1.15,2013-04-23 06:05:00,
2013-04-23 02:06:00,41.5,36.1,30.35,NNW,335,3.0,7.0,81,0.00,,,0.00,Wunderground v.1.15,2013-04-23 06:06:00,
2013-04-23 02:10:00,41.6,36.2,30.35,NNW,338,3.0,3.0,81,0.00,,,0.00,Wunderground v.1.15,2013-04-23 06:10:00,
2013-04-23 02:11:00,41.6,36.2,30.35,NNW,332,1.0,3.0,81,0.00,,,0.00,Wunderground v.1.15,2013-04-23 06:11:00,
2013-04-23 02:12:00,41.6,36.2,30.35,North,349,3.0,3.0,81,0.00,,,0.00,Wunderground v.1.15,2013-04-23 06:12:00,
2013-04-23 02:16:00,41.7,36.3,30.35,NNW,338,3.0,5.0,81,0.00,,,0.00,Wunderground v.1.15,2013-04-23 06:16:00,
2013-04-23 02:17:00,41.7,36.3,30.35,NW,321,2.0,5.0,81,0.00,,,0.00,Wunderground v.1.15,2013-04-23 06:17:00,
2013-04-23 02:21:00,41.7,36.3,30.35,NNW,343,1.0,2.0,81,0.00,,,0.00,Wunderground v.1.15,2013-04-23 06:21:00,
2013-04-23 02:23:00,41.7,36.0,30.35,NNE,13,2.0,4.0,80,0.00,,,0.00,Wunderground v.1.15,2013-04-23 06:23:00,
2013-04-23 02:26:00,41.7,36.0,30.34,NNE,14,3.0,4.0,80,0.00,,,0.00,Wunderground v.1.15,2013-04-23 06:26:00,
2013-04-23 02:28:00,41.7,36.0,30.34,NE,36,4.0,6.0,80,0.00,,,0.00,Wunderground v.1.15,2013-04-23 06:28:00,
2013-04-23 02:29:00,41.7,36.0,30.34,North,356,2.0,6.0,80,0.00,,,0.00,Wunderground v.1.15,2013-04-23 06:29:00,
2013-04-23 02:32:00,41.7,36.0,30.34,NNW,341,2.0,4.0,80,0.00,,,0.00,Wunderground v.1.15,2013-04-23 06:32:00,
2013-04-23 02:33:00,41.7,36.0,30.34,NNW,341,2.0,5.0,80,0.00,,,0.00,Wunderground v.1.15,2013-04-23 06:33:00,
2013-04-23 02:34:00,41.7,36.0,30.34,NNE,14,2.0,5.0,80,0.00,,,0.00,Wunderground v.1.15,2013-04-23 06:34:00,
2013-04-23 02:37:00,41.6,36.2,30.34,North,1,1.0,5.0,81,0.00,,,0.00,Wunderground v.1.15,2013-04-23 06:37:00,
2013-04-23 02:39:00,41.7,36.3,30.34,NNE,21,2.0,2.0,81,0.00,,,0.00,Wunderground v.1.15,2013-04-23 06:39:00,
2013-04-23 02:42:00,41.6,36.2,30.34,NW,318,2.0,3.0,81,0.00,,,0.00,Wunderground v.1.15,2013-04-23 06:42:00,
2013-04-23 02:44:00,41.6,35.9,30.34,NNW,345,1.0,3.0,80,0.00,,,0.00,Wunderground v.1.15,2013-04-23 06:44:00,
2013-04-23 02:45:00,41.6,35.9,30.34,North,352,2.0,3.0,80,0.00,,,0.00,Wunderground v.1.15,2013-04-23 06:45:00,
2013-04-23 02:47:00,41.6,35.9,30.34,North,349,2.0,4.0,80,0.00,,,0.00,Wunderground v.1.15,2013-04-23 06:47:00,
2013-04-23 02:49:00,41.5,35.8,30.34,NNE,14,4.0,4.0,80,0.00,,,0.00,Wunderground v.1.15,2013-04-23 06:49:00,
2013-04-23 02:50:00,41.5,35.8,30.34,North,11,4.0,4.0,80,0.00,,,0.00,Wunderground v.1.15,2013-04-23 06:50:00,
2013-04-23 02:52:00,41.5,36.1,30.33,NNE,12,4.0,5.0,81,0.00,,,0.00,Wunderground v.1.15,2013-04-23 06:52:00,
2013-04-23 02:53:00,41.5,36.1,30.33,NNE,32,4.0,5.0,81,0.00,,,0.00,Wunderground v.1.15,2013-04-23 06:53:00,
2013-04-23 02:55:00,41.4,36.0,30.33,North,7,5.0,5.0,81,0.00,,,0.00,Wunderground v.1.15,2013-04-23 06:55:00,
2013-04-23 02:58:00,41.2,35.8,30.33,NNE,21,1.0,6.0,81,0.00,,,0.00,Wunderground v.1.15,2013-04-23 06:58:00,
2013-04-23 03:00:00,41.2,35.8,30.33,NNE,25,2.0,5.0,81,0.00,,,0.00,Wunderground v.1.15,2013-04-23 07:00:00,
2013-04-23 03:03:00,41.2,35.8,30.33,NNE,23,2.0,5.0,81,0.00,,,0.00,Wunderground v.1.15,2013-04-23 07:03:00,
2013-04-23 03:04:00,41.2,35.8,30.33,NE,36,4.0,5.0,81,0.00,,,0.00,Wunderground v.1.15,2013-04-23 07:04:00,
2013-04-23 03:05:00,41.2,35.8,30.33,NNW,341,3.0,5.0,81,0.00,,,0.00,Wunderground v.1.15,2013-04-23 07:05:00,
2013-04-23 03:06:00,41.2,35.8,30.33,NNE,13,3.0,5.0,81,0.00,,,0.00,Wunderground v.1.15,2013-04-23 07:06:00,
2013-04-23 03:08:00,41.1,35.7,30.33,NNE,13,4.0,6.0,81,0.00,,,0.00,Wunderground v.1.15,2013-04-23 07:08:00,
2013-04-23 03:09:00,41.2,35.8,30.33,North,11,4.0,4.0,81,0.00,,,0.00,Wunderground v.1.15,2013-04-23 07:09:00,
2013-04-23 03:10:00,41.2,35.8,30.33,NE,36,2.0,4.0,81,0.00,,,0.00,Wunderground v.1.15,2013-04-23 07:10:00,
2013-04-23 03:11:00,41.2,35.8,30.33,NW,316,2.0,4.0,81,0.00,,,0.00,Wunderground v.1.15,2013-04-23 07:11:00,
2013-04-23 03:13:00,41.2,35.8,30.33,NNE,22,4.0,5.0,81,0.00,,,0.00,Wunderground v.1.15,2013-04-23 07:13:00,
2013-04-23 03:14:00,41.2,35.8,30.33,NNE,29,3.0,5.0,81,0.00,,,0.00,Wunderground v.1.15,2013-04-23 07:14:00,
2013-04-23 03:15:00,41.2,35.8,30.33,North,349,3.0,5.0,81,0.00,,,0.00,Wunderground v.1.15,2013-04-23 07:15:00,
2013-04-23 03:16:00,41.2,35.8,30.33,NW,315,3.0,5.0,81,0.00,,,0.00,Wunderground v.1.15,2013-04-23 07:16:00,
2013-04-23 03:19:00,41.2,35.8,30.33,North,4,3.0,6.0,81,0.00,,,0.00,Wunderground v.1.15,2013-04-23 07:19:00,
2013-04-23 03:21:00,41.2,35.8,30.33,NNW,338,1.0,3.0,81,0.00,,,0.00,Wunderground v.1.15,2013-04-23 07:21:00,
2013-04-23 03:24:00,41.1,35.7,30.33,North,352,0.0,3.0,81,0.00,,,0.00,Wunderground v.1.15,2013-04-23 07:24:00,
2013-04-23 03:26:00,41.0,35.6,30.33,North,354,2.0,4.0,81,0.00,,,0.00,Wunderground v.1.15,2013-04-23 07:26:00,
2013-04-23 03:27:00,41.0,35.6,30.33,NNE,29,5.0,5.0,81,0.00,,,0.00,Wunderground v.1.15,2013-04-23 07:27:00,
2013-04-23 03:28:00,40.9,35.5,30.33,NW,314,2.0,5.0,81,0.00,,,0.00,Wunderground v.1.15,2013-04-23 07:28:00,
2013-04-23 03:29:00,40.9,35.8,30.33,NNW,330,1.0,5.0,82,0.00,,,0.00,Wunderground v.1.15,2013-04-23 07:29:00,
2013-04-23 03:32:00,40.8,35.7,30.33,North,355,1.0,2.0,82,0.00,,,0.00,Wunderground v.1.15,2013-04-23 07:32:00,
2013-04-23 03:33:00,40.7,35.6,30.33,North,8,2.0,2.0,82,0.00,,,0.00,Wunderground v.1.15,2013-04-23 07:33:00,
2013-04-23 03:34:00,40.6,35.5,30.33,NNW,340,2.0,3.0,82,0.00,,,0.00,Wunderground v.1.15,2013-04-23 07:34:00,
2013-04-23 03:35:00,40.6,35.5,30.33,North,356,3.0,3.0,82,0.00,,,0.00,Wunderground v.1.15,2013-04-23 07:35:00,
2013-04-23 03:37:00,40.5,35.4,30.33,NNW,338,1.0,4.0,82,0.00,,,0.00,Wunderground v.1.15,2013-04-23 07:37:00,
2013-04-23 03:38:00,40.5,35.4,30.33,North,358,2.0,4.0,82,0.00,,,0.00,Wunderground v.1.15,2013-04-23 07:38:00,
2013-04-23 03:39:00,40.4,35.6,30.33,NNE,30,2.0,2.0,83,0.00,,,0.00,Wunderground v.1.15,2013-04-23 07:39:00,
2013-04-23 03:40:00,40.5,35.7,30.33,NNE,20,4.0,5.0,83,0.00,,,0.00,Wunderground v.1.15,2013-04-23 07:40:00,
2013-04-23 03:42:00,40.5,35.7,30.33,NNE,33,5.0,5.0,83,0.00,,,0.00,Wunderground v.1.15,2013-04-23 07:42:00,
2013-04-23 03:43:00,40.5,35.7,30.33,NNW,341,4.0,6.0,83,0.00,,,0.00,Wunderground v.1.15,2013-04-23 07:43:00,
2013-04-23 03:44:00,40.5,35.7,30.33,North,10,4.0,6.0,83,0.00,,,0.00,Wunderground v.1.15,2013-04-23 07:44:00,
2013-04-23 03:45:00,40.5,35.7,30.33,NNW,340,1.0,6.0,83,0.00,,,0.00,Wunderground v.1.15,2013-04-23 07:45:00,
2013-04-23 03:47:00,40.6,35.8,30.33,NNE,14,3.0,6.0,83,0.00,,,0.00,Wunderground v.1.15,2013-04-23 07:47:00,
2013-04-23 03:48:00,40.6,35.8,30.33,NNE,20,1.0,6.0,83,0.00,,,0.00,Wunderground v.1.15,2013-04-23 07:48:00,
2013-04-23 03:49:00,40.6,35.8,30.33,North,11,3.0,6.0,83,0.00,,,0.00,Wunderground v.1.15,2013-04-23 07:49:00,
2013-04-23 03:50:00,40.6,35.8,30.33,NNE,22,1.0,4.0,83,0.00,,,0.00,Wunderground v.1.15,2013-04-23 07:50:00,
2013-04-23 03:51:00,40.6,35.8,30.33,NNE,27,2.0,4.0,83,0.00,,,0.00,Wunderground v.1.15,2013-04-23 07:51:00,
2013-04-23 03:53:00,40.7,35.9,30.33,North,8,1.0,4.0,83,0.00,,,0.00,Wunderground v.1.15,2013-04-23 07:53:00,
2013-04-23 03:54:00,40.7,35.9,30.33,North,349,2.0,4.0,83,0.00,,,0.00,Wunderground v.1.15,2013-04-23 07:54:00,
2013-04-23 03:55:00,40.7,35.9,30.33,NNE,16,2.0,4.0,83,0.00,,,0.00,Wunderground v.1.15,2013-04-23 07:55:00,
2013-04-23 03:57:00,40.7,35.9,30.33,NNW,327,1.0,4.0,83,0.00,,,0.00,Wunderground v.1.15,2013-04-23 07:57:00,
2013-04-23 03:58:00,40.7,35.9,30.33,NNE,13,2.0,4.0,83,0.00,,,0.00,Wunderground v.1.15,2013-04-23 07:58:00,
2013-04-23 03:59:00,40.7,35.9,30.33,North,3,3.0,6.0,83,0.00,,,0.00,Wunderground v.1.15,2013-04-23 07:59:00,
2013-04-23 04:01:00,40.8,36.0,30.33,NNW,332,2.0,3.0,83,0.00,,,0.00,Wunderground v.1.15,2013-04-23 08:01:00,
2013-04-23 04:02:00,40.7,35.9,30.32,North,352,2.0,4.0,83,0.00,,,0.00,Wunderground v.1.15,2013-04-23 08:02:00,
2013-04-23 04:03:00,40.8,36.0,30.32,NNW,338,1.0,4.0,83,0.00,,,0.00,Wunderground v.1.15,2013-04-23 08:03:00,
2013-04-23 04:04:00,40.8,36.0,30.32,NNE,26,4.0,4.0,83,0.00,,,0.00,Wunderground v.1.15,2013-04-23 08:04:00,
2013-04-23 04:06:00,40.8,36.0,30.33,NNW,336,1.0,5.0,83,0.00,,,0.00,Wunderground v.1.15,2013-04-23 08:06:00,
2013-04-23 04:07:00,40.8,36.0,30.32,NW,321,3.0,5.0,83,0.00,,,0.00,Wunderground v.1.15,2013-04-23 08:07:00,
2013-04-23 04:08:00,40.8,36.0,30.33,North,8,2.0,5.0,83,0.00,,,0.00,Wunderground v.1.15,2013-04-23 08:08:00,
2013-04-23 04:09:00,40.8,36.0,30.33,North,6,1.0,3.0,83,0.00,,,0.00,Wunderground v.1.15,2013-04-23 08:09:00,
2013-04-23 04:10:00,40.8,36.0,30.33,NNW,343,3.0,3.0,83,0.00,,,0.00,Wunderground v.1.15,2013-04-23 08:10:00,
2013-04-23 04:11:00,40.9,36.1,30.33,NNE,19,2.0,4.0,83,0.00,,,0.00,Wunderground v.1.15,2013-04-23 08:11:00,
2013-04-23 04:13:00,40.9,36.1,30.33,NNE,27,4.0,4.0,83,0.00,,,0.00,Wunderground v.1.15,2013-04-23 08:13:00,
2013-04-23 04:14:00,40.9,36.1,30.33,North,354,3.0,4.0,83,0.00,,,0.00,Wunderground v.1.15,2013-04-23 08:14:00,
2013-04-23 04:15:00,40.9,36.1,30.33,NNE,13,1.0,4.0,83,0.00,,,0.00,Wunderground v.1.15,2013-04-23 08:15:00,
2013-04-23 04:16:00,40.9,36.1,30.33,North,354,2.0,4.0,83,0.00,,,0.00,Wunderground v.1.15,2013-04-23 08:16:00,
2013-04-23 04:18:00,40.9,36.1,30.33,NW,321,1.0,4.0,83,0.00,,,0.00,Wunderground v.1.15,2013-04-23 08:18:00,
2013-04-23 04:19:00,40.9,36.1,30.33,NNE,29,4.0,5.0,83,0.00,,,0.00,Wunderground v.1.15,2013-04-23 08:19:00,
2013-04-23 04:20:00,40.9,36.1,30.33,NNW,338,1.0,5.0,83,0.00,,,0.00,Wunderground v.1.15,2013-04-23 08:20:00,
2013-04-23 04:22:00,40.9,36.1,30.33,North,6,4.0,5.0,83,0.00,,,0.00,Wunderground v.1.15,2013-04-23 08:22:00,
2013-04-23 04:23:00,40.9,36.1,30.33,NNW,343,4.0,5.0,83,0.00,,,0.00,Wunderground v.1.15,2013-04-23 08:23:00,
2013-04-23 04:25:00,40.9,36.1,30.33,NNW,342,2.0,5.0,83,0.00,,,0.00,Wunderground v.1.15,2013-04-23 08:25:00,
2013-04-23 04:26:00,40.9,36.1,30.33,North,349,2.0,5.0,83,0.00,,,0.00,Wunderground v.1.15,2013-04-23 08:26:00,
2013-04-23 04:27:00,40.9,36.1,30.33,North,3,4.0,5.0,83,0.00,,,0.00,Wunderground v.1.15,2013-04-23 08:27:00,
2013-04-23 04:28:00,40.9,36.1,30.33,North,356,1.0,5.0,83,0.00,,,0.00,Wunderground v.1.15,2013-04-23 08:28:00,
2013-04-23 04:31:00,40.9,35.8,30.33,NW,323,2.0,3.0,82,0.00,,,0.00,Wunderground v.1.15,2013-04-23 08:31:00,
2013-04-23 04:32:00,40.9,35.8,30.33,NNW,340,4.0,4.0,82,0.00,,,0.00,Wunderground v.1.15,2013-04-23 08:32:00,
2013-04-23 04:33:00,41.0,35.9,30.33,NNW,338,4.0,6.0,82,0.00,,,0.00,Wunderground v.1.15,2013-04-23 08:33:00,
2013-04-23 04:34:00,41.0,35.9,30.33,North,8,1.0,6.0,82,0.00,,,0.00,Wunderground v.1.15,2013-04-23 08:34:00,
2013-04-23 04:37:00,41.0,35.9,30.33,NNE,16,3.0,6.0,82,0.00,,,0.00,Wunderground v.1.15,2013-04-23 08:37:00,
2013-04-23 04:38:00,41.0,35.9,30.33,NNE,22,2.0,6.0,82,0.00,,,0.00,Wunderground v.1.15,2013-04-23 08:38:00,
2013-04-23 04:39:00,41.0,35.9,30.33,North,7,2.0,6.0,82,0.00,,,0.00,Wunderground v.1.15,2013-04-23 08:39:00,
2013-04-23 04:42:00,41.0,35.9,30.33,NW,316,2.0,4.0,82,0.00,,,0.00,Wunderground v.1.15,2013-04-23 08:42:00,
2013-04-23 04:44:00,41.0,35.9,30.33,NNW,333,2.0,4.0,82,0.00,,,0.00,Wunderground v.1.15,2013-04-23 08:44:00,
2013-04-23 04:47:00,41.0,35.9,30.33,North,352,3.0,4.0,82,0.00,,,0.00,Wunderground v.1.15,2013-04-23 08:47:00,
2013-04-23 04:48:00,41.0,35.9,30.33,North,349,2.0,4.0,82,0.00,,,0.00,Wunderground v.1.15,2013-04-23 08:48:00,
2013-04-23 04:49:00,41.0,35.9,30.32,North,354,2.0,4.0,82,0.00,,,0.00,Wunderground v.1.15,2013-04-23 08:49:00,
2013-04-23 04:50:00,41.0,35.9,30.32,North,354,4.0,4.0,82,0.00,,,0.00,Wunderground v.1.15,2013-04-23 08:50:00,
2013-04-23 04:53:00,41.0,35.9,30.32,North,3,5.0,5.0,82,0.00,,,0.00,Wunderground v.1.15,2013-04-23 08:53:00,
2013-04-23 04:54:00,41.0,35.9,30.32,NE,36,4.0,5.0,82,0.00,,,0.00,Wunderground v.1.15,2013-04-23 08:54:00,
2013-04-23 04:57:00,41.0,35.9,30.32,NNE,12,1.0,5.0,82,0.00,,,0.00,Wunderground v.1.15,2013-04-23 08:57:00,
2013-04-23 04:58:00,41.0,35.9,30.32,NNE,18,1.0,5.0,82,0.00,,,0.00,Wunderground v.1.15,2013-04-23 08:58:00,
2013-04-23 04:59:00,41.0,35.9,30.32,NNW,344,2.0,3.0,82,0.00,,,0.00,Wunderground v.1.15,2013-04-23 08:59:00,
2013-04-23 05:00:00,41.0,35.9,30.32,NNW,341,1.0,3.0,82,0.00,,,0.00,Wunderground v.1.15,2013-04-23 09:00:00,
2013-04-23 05:02:00,41.0,35.9,30.32,NNW,344,1.0,3.0,82,0.00,,,0.00,Wunderground v.1.15,2013-04-23 09:02:00,
2013-04-23 05:03:00,41.0,35.9,30.32,North,355,1.0,3.0,82,0.00,,,0.00,Wunderground v.1.15,2013-04-23 09:03:00,
2013-04-23 05:04:00,41.1,36.0,30.32,NW,323,1.0,3.0,82,0.00,,,0.00,Wunderground v.1.15,2013-04-23 09:04:00,
2013-04-23 05:06:00,41.1,36.0,30.32,North,349,1.0,3.0,82,0.00,,,0.00,Wunderground v.1.15,2013-04-23 09:06:00,
2013-04-23 05:08:00,41.1,36.0,30.32,NNE,27,1.0,3.0,82,0.00,,,0.00,Wunderground v.1.15,2013-04-23 09:08:00,
2013-04-23 05:10:00,41.1,36.0,30.32,NNE,27,3.0,3.0,82,0.00,,,0.00,Wunderground v.1.15,2013-04-23 09:10:00,
2013-04-23 05:12:00,41.1,36.0,30.32,NNE,20,1.0,3.0,82,0.00,,,0.00,Wunderground v.1.15,2013-04-23 09:12:00,
2013-04-23 05:13:00,41.1,36.0,30.32,NNE,22,1.0,3.0,82,0.00,,,0.00,Wunderground v.1.15,2013-04-23 09:13:00,
2013-04-23 05:15:00,41.1,36.0,30.32,North,354,2.0,3.0,82,0.00,,,0.00,Wunderground v.1.15,2013-04-23 09:15:00,
2013-04-23 05:17:00,41.1,35.7,30.32,NNW,345,1.0,3.0,81,0.00,,,0.00,Wunderground v.1.15,2013-04-23 09:17:00,
2013-04-23 05:18:00,41.1,35.7,30.32,NNE,15,2.0,3.0,81,0.00,,,0.00,Wunderground v.1.15,2013-04-23 09:18:00,
2013-04-23 05:20:00,41.1,35.7,30.32,NNW,347,3.0,4.0,81,0.00,,,0.00,Wunderground v.1.15,2013-04-23 09:20:00,
2013-04-23 05:21:00,41.1,35.7,30.32,NNW,340,2.0,4.0,81,0.00,,,0.00,Wunderground v.1.15,2013-04-23 09:21:00,
2013-04-23 05:23:00,41.2,35.8,30.32,North,8,0.0,4.0,81,0.00,,,0.00,Wunderground v.1.15,2013-04-23 09:23:00,
2013-04-23 05:26:00,41.2,35.8,30.31,NNE,13,3.0,4.0,81,0.00,,,0.00,Wunderground v.1.15,2013-04-23 09:26:00,
2013-04-23 05:27:00,41.2,35.8,30.31,NNE,19,3.0,6.0,81,0.00,,,0.00,Wunderground v.1.15,2013-04-23 09:27:00,
2013-04-23 05:28:00,41.2,35.8,30.31,North,5,1.0,6.0,81,0.00,,,0.00,Wunderground v.1.15,2013-04-23 09:28:00,
2013-04-23 05:29:00,41.2,35.8,30.31,NNE,33,2.0,6.0,81,0.00,,,0.00,Wunderground v.1.15,2013-04-23 09:29:00,
2013-04-23 05:31:00,41.1,35.7,30.31,North,5,4.0,5.0,81,0.00,,,0.00,Wunderground v.1.15,2013-04-23 09:31:00,
2013-04-23 05:32:00,41.2,35.8,30.31,NNE,29,5.0,6.0,81,0.00,,,0.00,Wunderground v.1.15,2013-04-23 09:32:00,
2013-04-23 05:34:00,41.2,35.8,30.31,NNE,27,3.0,6.0,81,0.00,,,0.00,Wunderground v.1.15,2013-04-23 09:34:00,
2013-04-23 05:36:00,41.1,35.7,30.31,NNE,29,4.0,6.0,81,0.00,,,0.00,Wunderground v.1.15,2013-04-23 09:36:00,
2013-04-23 05:37:00,41.1,35.7,30.31,North,354,2.0,6.0,81,0.00,,,0.00,Wunderground v.1.15,2013-04-23 09:37:00,
2013-04-23 05:39:00,41.1,35.7,30.31,North,4,2.0,3.0,81,0.00,,,0.00,Wunderground v.1.15,2013-04-23 09:39:00,
2013-04-23 05:40:00,41.1,35.7,30.31,North,6,2.0,3.0,81,0.00,,,0.00,Wunderground v.1.15,2013-04-23 09:40:00,
2013-04-23 05:42:00,41.1,35.7,30.31,NE,37,2.0,4.0,81,0.00,,,0.00,Wunderground v.1.15,2013-04-23 09:42:00,
2013-04-23 05:44:00,41.1,35.7,30.31,North,349,2.0,5.0,81,0.00,,,0.00,Wunderground v.1.15,2013-04-23 09:44:00,
2013-04-23 05:45:00,41.1,35.7,30.31,North,9,1.0,5.0,81,0.00,,,0.00,Wunderground v.1.15,2013-04-23 09:45:00,
2013-04-23 05:48:00,41.0,35.6,30.31,North,356,1.0,5.0,81,0.00,,,0.00,Wunderground v.1.15,2013-04-23 09:48:00,
2013-04-23 05:49:00,41.0,35.6,30.31,WNW,302,1.0,2.0,81,0.00,,,0.00,Wunderground v.1.15,2013-04-23 09:49:00,
2013-04-23 05:51:00,40.9,35.5,30.31,NNW,327,2.0,3.0,81,0.00,,,0.00,Wunderground v.1.15,2013-04-23 09:51:00,
2013-04-23 05:54:00,40.9,35.5,30.31,NNW,338,1.0,3.0,81,0.00,,,0.00,Wunderground v.1.15,2013-04-23 09:54:00,
2013-04-23 05:56:00,40.8,35.4,30.31,NW,321,1.0,3.0,81,0.00,,,0.00,Wunderground v.1.15,2013-04-23 09:56:00,
2013-04-23 05:57:00,40.8,35.4,30.31,NNW,346,2.0,3.0,81,0.00,,,0.00,Wunderground v.1.15,2013-04-23 09:57:00,
2013-04-23 05:59:00,40.7,35.6,30.31,NW,319,2.0,3.0,82,0.00,,,0.00,Wunderground v.1.15,2013-04-23 09:59:00,
2013-04-23 06:01:00,40.6,35.5,30.31,NNW,327,2.0,5.0,82,0.00,,,0.00,Wunderground v.1.15,2013-04-23 10:01:00,
2013-04-23 06:02:00,40.6,35.5,30.31,North,355,3.0,5.0,82,0.00,,,0.00,Wunderground v.1.15,2013-04-23 10:02:00,
2013-04-23 06:04:00,40.5,35.4,30.31,NW,319,2.0,5.0,82,0.00,,,0.00,Wunderground v.1.15,2013-04-23 10:04:00,
2013-04-23 06:05:00,40.5,35.4,30.31,WNW,299,1.0,5.0,82,0.00,,,0.00,Wunderground v.1.15,2013-04-23 10:05:00,
2013-04-23 06:06:00,40.4,35.3,30.31,NW,305,0.0,5.0,82,0.00,,,0.00,Wunderground v.1.15,2013-04-23 10:06:00,
2013-04-23 06:07:00,40.4,35.3,30.31,NW,305,0.0,5.0,82,0.00,,,0.00,Wunderground v.1.15,2013-04-23 10:07:00,
2013-04-23 06:09:00,40.4,35.3,30.31,NW,319,1.0,2.0,82,0.00,,,0.00,Wunderground v.1.15,2013-04-23 10:09:00,
2013-04-23 06:10:00,40.4,35.3,30.31,NW,319,0.0,2.0,82,0.00,,,0.00,Wunderground v.1.15,2013-04-23 10:10:00,
2013-04-23 06:11:00,40.3,35.5,30.31,NW,319,0.0,2.0,83,0.00,,,0.00,Wunderground v.1.15,2013-04-23 10:11:00,
2013-04-23 06:12:00,40.3,35.5,30.31,NW,316,1.0,2.0,83,0.00,,,0.00,Wunderground v.1.15,2013-04-23 10:12:00,
2013-04-23 06:14:00,40.3,35.5,30.31,NW,316,0.0,2.0,83,0.00,,,0.00,Wunderground v.1.15,2013-04-23 10:14:00,
2013-04-23 06:15:00,40.3,35.5,30.31,NW,316,1.0,2.0,83,0.00,,,0.00,Wunderground v.1.15,2013-04-23 10:15:00,
2013-04-23 06:16:00,40.3,35.5,30.31,NW,316,1.0,2.0,83,0.00,,,0.00,Wunderground v.1.15,2013-04-23 10:16:00,
2013-04-23 06:17:00,40.3,35.5,30.31,NW,316,0.0,2.0,83,0.00,,,0.00,Wunderground v.1.15,2013-04-23 10:17:00,
2013-04-23 06:18:00,40.3,35.5,30.31,NW,316,2.0,2.0,83,0.00,,,0.00,Wunderground v.1.15,2013-04-23 10:18:00,
2013-04-23 06:20:00,40.3,35.5,30.32,WNW,302,2.0,3.0,83,0.00,,,0.00,Wunderground v.1.15,2013-04-23 10:20:00,
2013-04-23 06:22:00,40.2,35.4,30.32,NW,314,1.0,3.0,83,0.00,,,0.00,Wunderground v.1.15,2013-04-23 10:22:00,
2013-04-23 06:23:00,40.2,35.4,30.32,NW,304,1.0,3.0,83,0.00,,,0.00,Wunderground v.1.15,2013-04-23 10:23:00,
2013-04-23 06:25:00,40.2,35.4,30.32,NW,310,0.0,3.0,83,0.00,,,0.00,Wunderground v.1.15,2013-04-23 10:25:00,
2013-04-23 06:26:00,40.2,35.4,30.31,NW,311,0.0,3.0,83,0.00,,,0.00,Wunderground v.1.15,2013-04-23 10:26:00,
2013-04-23 06:27:00,40.2,35.4,30.31,NW,309,3.0,3.0,83,0.00,,,0.00,Wunderground v.1.15,2013-04-23 10:27:00,
2013-04-23 06:28:00,40.2,35.4,30.31,NW,309,3.0,3.0,83,0.00,,,0.00,Wunderground v.1.15,2013-04-23 10:28:00,
2013-04-23 06:31:00,40.2,35.4,30.32,NNE,25,1.0,2.0,83,0.00,,,0.00,Wunderground v.1.15,2013-04-23 10:31:00,
2013-04-23 06:32:00,40.2,35.4,30.31,North,355,2.0,2.0,83,0.00,,,0.00,Wunderground v.1.15,2013-04-23 10:32:00,
2013-04-23 06:33:00,40.2,35.4,30.31,North,355,1.0,2.0,83,0.00,,,0.00,Wunderground v.1.15,2013-04-23 10:33:00,
2013-04-23 06:36:00,40.2,35.4,30.31,NNW,335,2.0,3.0,83,0.00,,,0.00,Wunderground v.1.15,2013-04-23 10:36:00,
2013-04-23 06:37:00,40.2,35.4,30.31,NW,323,2.0,3.0,83,0.00,,,0.00,Wunderground v.1.15,2013-04-23 10:37:00,
2013-04-23 06:38:00,40.2,35.4,30.31,NNE,12,3.0,3.0,83,0.00,,,0.00,Wunderground v.1.15,2013-04-23 10:38:00,
2013-04-23 06:39:00,40.2,35.4,30.31,North,358,2.0,3.0,83,0.00,,,0.00,Wunderground v.1.15,2013-04-23 10:39:00,
2013-04-23 06:42:00,40.2,35.4,30.31,NNE,27,2.0,4.0,83,0.00,,,0.00,Wunderground v.1.15,2013-04-23 10:42:00,
2013-04-23 06:43:00,40.2,35.4,30.31,North,357,2.0,4.0,83,0.00,,,0.00,Wunderground v.1.15,2013-04-23 10:43:00,
2013-04-23 06:44:00,40.2,35.4,30.31,NNE,12,1.0,4.0,83,0.00,,,0.00,Wunderground v.1.15,2013-04-23 10:44:00,
2013-04-23 06:45:00,40.2,35.4,30.31,North,7,1.0,4.0,83,0.00,,,0.00,Wunderground v.1.15,2013-04-23 10:45:00,
2013-04-23 06:47:00,40.2,35.4,30.31,North,354,1.0,4.0,83,0.00,,,0.00,Wunderground v.1.15,2013-04-23 10:47:00,
2013-04-23 06:48:00,40.2,35.4,30.31,North,360,0.0,4.0,83,0.00,,,0.00,Wunderground v.1.15,2013-04-23 10:48:00,
2013-04-23 06:49:00,40.2,35.4,30.31,North,355,2.0,4.0,83,0.00,,,0.00,Wunderground v.1.15,2013-04-23 10:49:00,
2013-04-23 06:50:00,40.2,35.4,30.31,NNE,20,4.0,4.0,83,0.00,,,0.00,Wunderground v.1.15,2013-04-23 10:50:00,
2013-04-23 06:52:00,40.2,35.1,30.31,NNE,18,3.0,4.0,82,0.00,,,0.00,Wunderground v.1.15,2013-04-23 10:52:00,
2013-04-23 06:53:00,40.3,35.2,30.31,NNE,12,3.0,4.0,82,0.00,,,0.00,Wunderground v.1.15,2013-04-23 10:53:00,
2013-04-23 06:54:00,40.2,35.1,30.31,NNW,338,2.0,6.0,82,0.00,,,0.00,Wunderground v.1.15,2013-04-23 10:54:00,
2013-04-23 06:55:00,40.3,35.2,30.31,NNW,347,3.0,6.0,82,0.00,,,0.00,Wunderground v.1.15,2013-04-23 10:55:00,
2013-04-23 06:57:00,40.3,35.2,30.31,North,356,2.0,6.0,82,0.00,,,0.00,Wunderground v.1.15,2013-04-23 10:57:00,
2013-04-23 06:59:00,40.3,35.2,30.31,NNW,345,4.0,6.0,82,0.00,,,0.00,Wunderground v.1.15,2013-04-23 10:59:00,
2013-04-23 07:00:00,40.3,35.2,30.31,North,359,4.0,5.0,82,0.00,,,0.00,Wunderground v.1.15,2013-04-23 11:00:00,
2013-04-23 07:02:00,40.3,35.2,30.31,NE,46,3.0,5.0,82,0.00,,,0.00,Wunderground v.1.15,2013-04-23 11:02:00,
2013-04-23 07:04:00,40.4,35.3,30.31,NNE,15,1.0,5.0,82,0.00,,,0.00,Wunderground v.1.15,2013-04-23 11:04:00,
2013-04-23 07:05:00,40.4,35.3,30.31,North,349,1.0,5.0,82,0.00,,,0.00,Wunderground v.1.15,2013-04-23 11:05:00,
2013-04-23 07:06:00,40.4,35.3,30.31,NNE,18,3.0,5.0,82,0.00,,,0.00,Wunderground v.1.15,2013-04-23 11:06:00,
2013-04-23 07:07:00,40.4,35.3,30.31,North,354,1.0,5.0,82,0.00,,,0.00,Wunderground v.1.15,2013-04-23 11:07:00,
2013-04-23 07:09:00,40.5,35.4,30.31,NNW,347,1.0,3.0,82,0.00,,,0.00,Wunderground v.1.15,2013-04-23 11:09:00,
2013-04-23 07:10:00,40.5,35.4,30.31,NNW,347,1.0,3.0,82,0.00,,,0.00,Wunderground v.1.15,2013-04-23 11:10:00,
2013-04-23 07:11:00,40.5,35.4,30.31,NNE,32,3.0,3.0,82,0.00,,,0.00,Wunderground v.1.15,2013-04-23 11:11:00,
2013-04-23 07:13:00,40.5,35.4,30.31,NNE,30,2.0,4.0,82,0.00,,,0.00,Wunderground v.1.15,2013-04-23 11:13:00,
2013-04-23 07:15:00,40.5,35.1,30.31,NNW,335,2.0,4.0,81,0.00,,,0.00,Wunderground v.1.15,2013-04-23 11:15:00,
2013-04-23 07:16:00,40.5,35.1,30.31,NW,319,2.0,4.0,81,0.00,,,0.00,Wunderground v.1.15,2013-04-23 11:16:00,
2013-04-23 07:18:00,40.5,35.1,30.31,NNE,13,6.0,7.0,81,0.00,,,0.00,Wunderground v.1.15,2013-04-23 11:18:00,
2013-04-23 07:20:00,40.5,34.8,30.32,NE,50,3.0,4.0,80,0.00,,,0.00,Wunderground v.1.15,2013-04-23 11:20:00,
2013-04-23 07:21:00,40.5,35.1,30.32,NE,38,4.0,4.0,81,0.00,,,0.00,Wunderground v.1.15,2013-04-23 11:21:00,
2013-04-23 07:23:00,40.4,35.0,30.32,North,349,3.0,4.0,81,0.00,,,0.00,Wunderground v.1.15,2013-04-23 11:23:00,
2013-04-23 07:25:00,40.5,34.8,30.31,North,8,4.0,6.0,80,0.00,,,0.00,Wunderground v.1.15,2013-04-23 11:25:00,
2013-04-23 07:26:00,40.5,34.8,30.31,NNE,23,3.0,6.0,80,0.00,,,0.00,Wunderground v.1.15,2013-04-23 11:26:00,
2013-04-23 07:27:00,40.6,35.2,30.32,North,11,2.0,6.0,81,0.00,,,0.00,Wunderground v.1.15,2013-04-23 11:27:00,
2013-04-23 07:28:00,40.6,35.2,30.31,North,353,2.0,6.0,81,0.00,,,0.00,Wunderground v.1.15,2013-04-23 11:28:00,
2013-04-23 07:29:00,40.7,35.3,30.31,North,353,1.0,6.0,81,0.00,,,0.00,Wunderground v.1.15,2013-04-23 11:29:00,
2013-04-23 07:30:00,40.7,35.0,30.31,North,359,3.0,7.0,80,0.00,,,0.00,Wunderground v.1.15,2013-04-23 11:30:00,
2013-04-23 07:31:00,40.8,35.1,30.31,NNE,16,5.0,7.0,80,0.00,,,0.00,Wunderground v.1.15,2013-04-23 11:31:00,
2013-04-23 07:32:00,40.9,35.2,30.31,NNW,335,4.0,7.0,80,0.00,,,0.00,Wunderground v.1.15,2013-04-23 11:32:00,
2013-04-23 07:34:00,40.9,35.2,30.31,NNE,18,5.0,7.0,80,0.00,,,0.00,Wunderground v.1.15,2013-04-23 11:34:00,
2013-04-23 07:35:00,41.0,35.3,30.31,NE,36,6.0,8.0,80,0.00,,,0.00,Wunderground v.1.15,2013-04-23 11:35:00,
2013-04-23 07:37:00,40.9,34.9,30.31,NE,36,6.0,9.0,79,0.00,,,0.00,Wunderground v.1.15,2013-04-23 11:37:00,
2013-04-23 07:39:00,41.0,35.0,30.31,NNE,13,5.0,9.0,79,0.00,,,0.00,Wunderground v.1.15,2013-04-23 11:39:00,
2013-04-23 07:40:00,41.1,35.4,30.31,North,349,3.0,7.0,80,0.00,,,0.00,Wunderground v.1.15,2013-04-23 11:40:00,
2013-04-23 07:42:00,41.3,35.6,30.31,NNE,23,3.0,7.0,80,0.00,,,0.00,Wunderground v.1.15,2013-04-23 11:42:00,
2013-04-23 07:44:00,41.5,35.8,30.31,NNW,344,1.0,7.0,80,0.00,,,0.00,Wunderground v.1.15,2013-04-23 11:44:00,
2013-04-23 07:45:00,41.7,36.0,30.32,NNE,20,4.0,7.0,80,0.00,,,0.00,Wunderground v.1.15,2013-04-23 11:45:00,
2013-04-23 07:47:00,41.9,35.9,30.31,NW,323,3.0,7.0,79,0.00,,,0.00,Wunderground v.1.15,2013-04-23 11:47:00,
2013-04-23 07:48:00,41.9,35.5,30.31,NNW,343,4.0,7.0,78,0.00,,,0.00,Wunderground v.1.15,2013-04-23 11:48:00,
2013-04-23 07:49:00,42.0,35.6,30.31,North,5,2.0,7.0,78,0.00,,,0.00,Wunderground v.1.15,2013-04-23 11:49:00,
2013-04-23 07:50:00,42.1,36.1,30.31,NNW,330,2.0,4.0,79,0.00,,,0.00,Wunderground v.1.15,2013-04-23 11:50:00,
2013-04-23 07:51:00,42.1,36.1,30.31,NNE,30,3.0,4.0,79,0.00,,,0.00,Wunderground v.1.15,2013-04-23 11:51:00,
2013-04-23 07:52:00,42.2,36.2,30.31,North,8,3.0,4.0,79,0.00,,,0.00,Wunderground v.1.15,2013-04-23 11:52:00,
2013-04-23 07:53:00,42.3,36.3,30.31,NNW,333,2.0,4.0,79,0.00,,,0.00,Wunderground v.1.15,2013-04-23 11:53:00,
2013-04-23 07:55:00,42.3,36.3,30.31,NNE,12,2.0,4.0,79,0.00,,,0.00,Wunderground v.1.15,2013-04-23 11:55:00,
2013-04-23 07:56:00,42.4,36.3,30.31,North,354,2.0,4.0,79,0.00,,,0.00,Wunderground v.1.15,2013-04-23 11:56:00,
2013-04-23 07:57:00,42.5,36.4,30.31,North,5,4.0,6.0,79,0.00,,,0.00,Wunderground v.1.15,2013-04-23 11:57:00,
2013-04-23 07:59:00,42.5,36.1,30.31,NNE,13,2.0,6.0,78,0.00,,,0.00,Wunderground v.1.15,2013-04-23 11:59:00,
2013-04-23 08:00:00,42.5,36.1,30.31,NNE,13,2.0,3.0,78,0.00,,,0.00,Wunderground v.1.15,2013-04-23 12:00:00,
2013-04-23 08:01:00,42.6,36.2,30.31,North,360,5.0,5.0,78,0.00,,,0.00,Wunderground v.1.15,2013-04-23 12:01:00,
2013-04-23 08:02:00,42.6,35.9,30.31,NNE,33,6.0,9.0,77,0.00,,,0.00,Wunderground v.1.15,2013-04-23 12:02:00,
2013-04-23 08:04:00,42.5,35.8,30.31,North,349,3.0,9.0,77,0.00,,,0.00,Wunderground v.1.15,2013-04-23 12:04:00,
2013-04-23 08:05:00,42.6,35.9,30.31,North,11,4.0,9.0,77,0.00,,,0.00,Wunderground v.1.15,2013-04-23 12:05:00,
2013-04-23 08:06:00,42.6,35.9,30.31,NNW,333,1.0,9.0,77,0.00,,,0.00,Wunderground v.1.15,2013-04-23 12:06:00,
2013-04-23 08:08:00,42.7,36.0,30.31,NNW,344,4.0,9.0,77,0.00,,,0.00,Wunderground v.1.15,2013-04-23 12:08:00,
2013-04-23 08:10:00,42.8,35.8,30.31,NW,311,2.0,4.0,76,0.00,,,0.00,Wunderground v.1.15,2013-04-23 12:10:00,
2013-04-23 08:11:00,42.8,35.8,30.31,NW,321,1.0,4.0,76,0.00,,,0.00,Wunderground v.1.15,2013-04-23 12:11:00,
2013-04-23 08:13:00,43.0,36.6,30.31,NNW,347,3.0,4.0,78,0.00,,,0.00,Wunderground v.1.15,2013-04-23 12:13:00,
2013-04-23 08:15:00,43.4,36.7,30.31,North,9,5.0,6.0,77,0.00,,,0.00,Wunderground v.1.15,2013-04-23 12:15:00,
2013-04-23 08:16:00,43.5,36.4,30.31,NE,42,6.0,8.0,76,0.00,,,0.00,Wunderground v.1.15,2013-04-23 12:16:00,
2013-04-23 08:18:00,43.5,36.4,30.31,NNE,20,4.0,8.0,76,0.00,,,0.00,Wunderground v.1.15,2013-04-23 12:18:00,
2013-04-23 08:21:00,43.6,36.5,30.31,NNE,13,5.0,6.0,76,0.00,,,0.00,Wunderground v.1.15,2013-04-23 12:21:00,
2013-04-23 08:22:00,43.7,36.6,30.31,NNE,26,3.0,7.0,76,0.00,,,0.00,Wunderground v.1.15,2013-04-23 12:22:00,
2013-04-23 08:24:00,43.7,36.6,30.31,North,6,3.0,7.0,76,0.00,,,0.00,Wunderground v.1.15,2013-04-23 12:24:00,
2013-04-23 08:26:00,43.9,36.8,30.31,NNE,15,3.0,7.0,76,0.00,,,0.00,Wunderground v.1.15,2013-04-23 12:26:00,
2013-04-23 08:27:00,43.9,36.5,30.31,NNW,338,4.0,7.0,75,0.00,,,0.00,Wunderground v.1.15,2013-04-23 12:27:00,
2013-04-23 08:29:00,43.8,36.0,30.31,NNE,33,4.0,6.0,74,0.00,,,0.00,Wunderground v.1.15,2013-04-23 12:29:00,
2013-04-23 08:31:00,43.7,36.0,30.31,NE,35,5.0,6.0,74,0.00,,,0.00,Wunderground v.1.15,2013-04-23 12:31:00,
2013-04-23 08:32:00,43.8,36.4,30.31,NNW,335,4.0,6.0,75,0.00,,,0.00,Wunderground v.1.15,2013-04-23 12:32:00,
2013-04-23 08:33:00,43.7,36.3,30.31,NNE,16,5.0,6.0,75,0.00,,,0.00,Wunderground v.1.15,2013-04-23 12:33:00,
2013-04-23 08:35:00,43.9,36.8,30.31,NE,38,4.0,7.0,76,0.00,,,0.00,Wunderground v.1.15,2013-04-23 12:35:00,
2013-04-23 08:36:00,44.0,36.9,30.31,NNE,25,4.0,7.0,76,0.00,,,0.00,Wunderground v.1.15,2013-04-23 12:36:00,
2013-04-23 08:37:00,44.0,36.9,30.31,NNW,334,4.0,7.0,76,0.00,,,0.00,Wunderground v.1.15,2013-04-23 12:37:00,
2013-04-23 08:38:00,44.0,36.6,30.30,NNE,25,2.0,7.0,75,0.00,,,0.00,Wunderground v.1.15,2013-04-23 12:38:00,
2013-04-23 08:40:00,44.2,37.1,30.31,NNE,23,6.0,7.0,76,0.00,,,0.00,Wunderground v.1.15,2013-04-23 12:40:00,
2013-04-23 08:41:00,44.1,36.7,30.30,NNE,29,4.0,7.0,75,0.00,,,0.00,Wunderground v.1.15,2013-04-23 12:41:00,
2013-04-23 08:42:00,44.3,36.9,30.31,North,11,5.0,7.0,75,0.00,,,0.00,Wunderground v.1.15,2013-04-23 12:42:00,
2013-04-23 08:44:00,44.3,36.5,30.30,NNE,15,3.0,7.0,74,0.00,,,0.00,Wunderground v.1.15,2013-04-23 12:44:00,
2013-04-23 08:45:00,44.3,36.5,30.30,NE,53,3.0,7.0,74,0.00,,,0.00,Wunderground v.1.15,2013-04-23 12:45:00,
2013-04-23 08:47:00,44.5,37.1,30.30,NW,324,4.0,10.0,75,0.00,,,0.00,Wunderground v.1.15,2013-04-23 12:47:00,
2013-04-23 08:48:00,44.6,37.2,30.30,NNE,32,5.0,10.0,75,0.00,,,0.00,Wunderground v.1.15,2013-04-23 12:48:00,
2013-04-23 08:49:00,44.6,37.2,30.30,NE,40,3.0,10.0,75,0.00,,,0.00,Wunderground v.1.15,2013-04-23 12:49:00,
2013-04-23 08:51:00,44.8,37.4,30.30,NNE,16,4.0,6.0,75,0.00,,,0.00,Wunderground v.1.15,2013-04-23 12:51:00,
2013-04-23 08:53:00,44.9,37.1,30.30,North,9,5.0,6.0,74,0.00,,,0.00,Wunderground v.1.15,2013-04-23 12:53:00,
2013-04-23 08:54:00,44.9,37.1,30.30,North,6,2.0,7.0,74,0.00,,,0.00,Wunderground v.1.15,2013-04-23 12:54:00,
2013-04-23 08:57:00,45.2,37.7,30.30,NNW,342,2.0,7.0,75,0.00,,,0.00,Wunderground v.1.15,2013-04-23 12:57:00,
2013-04-23 08:59:00,45.2,37.4,30.30,NNE,14,4.0,7.0,74,0.00,,,0.00,Wunderground v.1.15,2013-04-23 12:59:00,
2013-04-23 09:02:00,45.5,37.7,30.30,NNE,23,5.0,8.0,74,0.00,,,0.00,Wunderground v.1.15,2013-04-23 13:02:00,
2013-04-23 09:04:00,45.5,37.3,30.30,NE,41,3.0,8.0,73,0.00,,,0.00,Wunderground v.1.15,2013-04-23 13:04:00,
2013-04-23 09:05:00,45.6,37.4,30.30,NE,36,7.0,8.0,73,0.00,,,0.00,Wunderground v.1.15,2013-04-23 13:05:00,
2013-04-23 09:08:00,45.9,38.1,30.29,NE,36,3.0,8.0,74,0.00,,,0.00,Wunderground v.1.15,2013-04-23 13:08:00,
2013-04-23 09:09:00,45.8,37.6,30.29,NNE,22,5.0,8.0,73,0.00,,,0.00,Wunderground v.1.15,2013-04-23 13:09:00,
2013-04-23 09:10:00,45.8,37.3,30.29,NNW,338,2.0,6.0,72,0.00,,,0.00,Wunderground v.1.15,2013-04-23 13:10:00,
2013-04-23 09:13:00,45.5,37.0,30.29,North,355,5.0,10.0,72,0.00,,,0.00,Wunderground v.1.15,2013-04-23 13:13:00,
2013-04-23 09:14:00,45.5,37.7,30.29,NNE,23,3.0,10.0,74,0.00,,,0.00,Wunderground v.1.15,2013-04-23 13:14:00,
2013-04-23 09:15:00,45.6,37.4,30.29,ENE,68,4.0,10.0,73,0.00,,,0.00,Wunderground v.1.15,2013-04-23 13:15:00,
2013-04-23 09:18:00,45.9,38.1,30.28,NE,46,4.0,10.0,74,0.00,,,0.00,Wunderground v.1.15,2013-04-23 13:18:00,
2013-04-23 09:20:00,46.0,37.8,30.28,NNE,13,5.0,5.0,73,0.00,,,0.00,Wunderground v.1.15,2013-04-23 13:20:00,
2013-04-23 09:23:00,46.0,37.5,30.28,NE,36,6.0,10.0,72,0.00,,,0.00,Wunderground v.1.15,2013-04-23 13:23:00,
2013-04-23 09:25:00,46.0,37.8,30.28,North,4,3.0,10.0,73,0.00,,,0.00,Wunderground v.1.15,2013-04-23 13:25:00,
2013-04-23 09:26:00,46.0,37.5,30.28,NW,315,1.0,10.0,72,0.00,,,0.00,Wunderground v.1.15,2013-04-23 13:26:00,
2013-04-23 09:29:00,46.4,38.9,30.28,NNE,30,8.0,10.0,75,0.00,,,0.00,Wunderground v.1.15,2013-04-23 13:29:00,
2013-04-23 09:30:00,46.6,38.4,30.28,North,6,7.0,8.0,73,0.00,,,0.00,Wunderground v.1.15,2013-04-23 13:30:00,
2013-04-23 09:31:00,46.6,38.4,30.28,NNE,15,7.0,8.0,73,0.00,,,0.00,Wunderground v.1.15,2013-04-23 13:31:00,
2013-04-23 09:34:00,46.6,38.1,30.27,NW,314,2.0,8.0,72,0.00,,,0.00,Wunderground v.1.15,2013-04-23 13:34:00,
2013-04-23 09:36:00,46.9,39.4,30.27,NNE,19,6.0,8.0,75,0.00,,,0.00,Wunderground v.1.15,2013-04-23 13:36:00,
2013-04-23 09:37:00,47.1,39.6,30.27,NNE,19,4.0,8.0,75,0.00,,,0.00,Wunderground v.1.15,2013-04-23 13:37:00,
2013-04-23 09:39:00,47.3,38.7,30.27,North,9,3.0,4.0,72,0.00,,,0.00,Wunderground v.1.15,2013-04-23 13:39:00,
2013-04-23 09:41:00,47.5,38.9,30.27,North,355,2.0,5.0,72,0.00,,,0.00,Wunderground v.1.15,2013-04-23 13:41:00,
2013-04-23 09:42:00,47.5,38.9,30.27,North,6,2.0,5.0,72,0.00,,,0.00,Wunderground v.1.15,2013-04-23 13:42:00,
2013-04-23 09:45:00,47.8,38.8,30.27,North,1,3.0,5.0,71,0.00,,,0.00,Wunderground v.1.15,2013-04-23 13:45:00,
2013-04-23 09:47:00,47.9,39.3,30.27,WNW,293,3.0,5.0,72,0.00,,,0.00,Wunderground v.1.15,2013-04-23 13:47:00,
2013-04-23 09:50:00,48.1,39.5,30.27,NW,318,2.0,6.0,72,0.00,,,0.00,Wunderground v.1.15,2013-04-23 13:50:00,
2013-04-23 09:52:00,48.2,39.2,30.27,WNW,295,2.0,6.0,71,0.00,,,0.00,Wunderground v.1.15,2013-04-23 13:52:00,
2013-04-23 09:56:00,48.1,38.8,30.27,NW,309,4.0,6.0,70,0.00,,,0.00,Wunderground v.1.15,2013-04-23 13:56:00,
2013-04-23 09:57:00,48.1,39.1,30.27,NW,317,4.0,6.0,71,0.00,,,0.00,Wunderground v.1.15,2013-04-23 13:57:00,
2013-04-23 09:58:00,48.1,38.4,30.27,NW,313,3.0,6.0,69,0.00,,,0.00,Wunderground v.1.15,2013-04-23 13:58:00,
2013-04-23 10:01:00,48.1,39.1,30.27,North,351,2.0,4.0,71,0.00,,,0.00,Wunderground v.1.15,2013-04-23 14:01:00,
2013-04-23 10:02:00,48.3,39.3,30.27,NNW,333,2.0,4.0,71,0.00,,,0.00,Wunderground v.1.15,2013-04-23 14:02:00,
2013-04-23 10:03:00,48.3,39.3,30.27,NNW,332,2.0,4.0,71,0.00,,,0.00,Wunderground v.1.15,2013-04-23 14:03:00,
2013-04-23 10:04:00,48.5,39.5,30.27,NNE,12,2.0,4.0,71,0.00,,,0.00,Wunderground v.1.15,2013-04-23 14:04:00,
2013-04-23 10:06:00,48.7,39.0,30.27,NW,307,2.0,5.0,69,0.00,,,0.00,Wunderground v.1.15,2013-04-23 14:06:00,
2013-04-23 10:08:00,48.7,39.7,30.27,NNE,13,4.0,5.0,71,0.00,,,0.00,Wunderground v.1.15,2013-04-23 14:08:00,
2013-04-23 10:09:00,48.8,39.8,30.27,WSW,253,3.0,5.0,71,0.00,,,0.00,Wunderground v.1.15,2013-04-23 14:09:00,
2013-04-23 10:12:00,49.2,39.5,30.27,WNW,283,2.0,4.0,69,0.00,,,0.00,Wunderground v.1.15,2013-04-23 14:12:00,
2013-04-23 10:13:00,49.2,39.5,30.27,WNW,290,5.0,5.0,69,0.00,,,0.00,Wunderground v.1.15,2013-04-23 14:13:00,
2013-04-23 10:14:00,49.2,39.5,30.26,WNW,299,3.0,5.0,69,0.00,,,0.00,Wunderground v.1.15,2013-04-23 14:14:00,
2013-04-23 10:17:00,49.3,39.2,30.26,WNW,287,4.0,5.0,68,0.00,,,0.00,Wunderground v.1.15,2013-04-23 14:17:00,
2013-04-23 10:18:00,49.2,38.7,30.26,West,273,3.0,5.0,67,0.00,,,0.00,Wunderground v.1.15,2013-04-23 14:18:00,
2013-04-23 10:19:00,49.2,38.7,30.26,West,278,4.0,5.0,67,0.00,,,0.00,Wunderground v.1.15,2013-04-23 14:19:00,
2013-04-23 10:23:00,49.5,40.1,30.26,NW,315,4.0,5.0,70,0.00,,,0.00,Wunderground v.1.15,2013-04-23 14:23:00,
2013-04-23 10:25:00,49.6,39.5,30.26,West,271,3.0,6.0,68,0.00,,,0.00,Wunderground v.1.15,2013-04-23 14:25:00,
2013-04-23 10:28:00,49.7,39.2,30.26,NW,324,1.0,6.0,67,0.00,,,0.00,Wunderground v.1.15,2013-04-23 14:28:00,
2013-04-23 10:30:00,50.1,39.9,30.26,NNW,328,2.0,7.0,68,0.00,,,0.00,Wunderground v.1.15,2013-04-23 14:30:00,
2013-04-23 10:31:00,50.2,40.0,30.25,NW,305,4.0,7.0,68,0.00,,,0.00,Wunderground v.1.15,2013-04-23 14:31:00,
2013-04-23 10:33:00,50.1,39.6,30.25,NNW,343,2.0,7.0,67,0.00,,,0.00,Wunderground v.1.15,2013-04-23 14:33:00,
2013-04-23 10:35:00,50.2,40.0,30.25,WNW,291,2.0,7.0,68,0.00,,,0.00,Wunderground v.1.15,2013-04-23 14:35:00,
2013-04-23 10:36:00,50.3,39.8,30.25,NNW,345,3.0,7.0,67,0.00,,,0.00,Wunderground v.1.15,2013-04-23 14:36:00,
2013-04-23 10:37:00,50.3,40.1,30.25,North,349,2.0,7.0,68,0.00,,,0.00,Wunderground v.1.15,2013-04-23 14:37:00,
2013-04-23 10:38:00,50.5,40.7,30.25,NW,323,2.0,7.0,69,0.00,,,0.00,Wunderground v.1.15,2013-04-23 14:38:00,
2013-04-23 10:41:00,50.8,40.6,30.25,NNE,15,2.0,4.0,68,0.00,,,0.00,Wunderground v.1.15,2013-04-23 14:41:00,
2013-04-23 10:42:00,50.8,39.8,30.25,WNW,300,2.0,4.0,66,0.00,,,0.00,Wunderground v.1.15,2013-04-23 14:42:00,
2013-04-23 10:44:00,50.8,39.5,30.25,WNW,282,2.0,4.0,65,0.00,,,0.00,Wunderground v.1.15,2013-04-23 14:44:00,
2013-04-23 10:46:00,50.9,39.9,30.25,NNW,344,2.0,4.0,66,0.00,,,0.00,Wunderground v.1.15,2013-04-23 14:46:00,
2013-04-23 10:47:00,50.9,39.9,30.25,NE,35,2.0,4.0,66,0.00,,,0.00,Wunderground v.1.15,2013-04-23 14:47:00,
2013-04-23 10:50:00,51.2,39.8,30.25,WNW,297,3.0,3.0,65,0.00,,,0.00,Wunderground v.1.15,2013-04-23 14:50:00,
2013-04-23 10:51:00,51.3,39.9,30.25,WNW,293,2.0,5.0,65,0.00,,,0.00,Wunderground v.1.15,2013-04-23 14:51:00,
2013-04-23 10:52:00,51.4,40.0,30.25,NW,311,5.0,5.0,65,0.00,,,0.00,Wunderground v.1.15,2013-04-23 14:52:00,
2013-04-23 10:53:00,51.4,40.4,30.26,North,8,3.0,5.0,66,0.00,,,0.00,Wunderground v.1.15,2013-04-23 14:53:00,
2013-04-23 10:55:00,51.4,40.0,30.26,West,265,5.0,6.0,65,0.00,,,0.00,Wunderground v.1.15,2013-04-23 14:55:00,
2013-04-23 10:56:00,51.4,39.6,30.26,West,273,3.0,6.0,64,0.00,,,0.00,Wunderground v.1.15,2013-04-23 14:56:00,
2013-04-23 10:57:00,51.3,39.9,30.26,NW,314,4.0,6.0,65,0.00,,,0.00,Wunderground v.1.15,2013-04-23 14:57:00,
2013-04-23 10:58:00,51.3,39.9,30.25,West,271,3.0,6.0,65,0.00,,,0.00,Wunderground v.1.15,2013-04-23 14:58:00,
2013-04-23 11:00:00,51.4,40.4,30.25,NW,308,2.0,3.0,66,0.00,,,0.00,Wunderground v.1.15,2013-04-23 15:00:00,
2013-04-23 11:01:00,51.5,40.1,30.26,NNW,338,2.0,3.0,65,0.00,,,0.00,Wunderground v.1.15,2013-04-23 15:01:00,
2013-04-23 11:02:00,51.5,40.1,30.26,West,274,2.0,3.0,65,0.00,,,0.00,Wunderground v.1.15,2013-04-23 15:02:00,
2013-04-23 11:03:00,51.6,40.6,30.26,West,280,2.0,3.0,66,0.00,,,0.00,Wunderground v.1.15,2013-04-23 15:03:00,
2013-04-23 11:06:00,51.6,40.2,30.25,NW,315,2.0,4.0,65,0.00,,,0.00,Wunderground v.1.15,2013-04-23 15:06:00,
2013-04-23 11:07:00,51.7,40.7,30.25,NW,311,1.0,4.0,66,0.00,,,0.00,Wunderground v.1.15,2013-04-23 15:07:00,
2013-04-23 11:08:00,51.7,40.7,30.25,NNW,332,1.0,4.0,66,0.00,,,0.00,Wunderground v.1.15,2013-04-23 15:08:00,
2013-04-23 11:09:00,51.9,40.5,30.25,NW,319,0.0,2.0,65,0.00,,,0.00,Wunderground v.1.15,2013-04-23 15:09:00,
2013-04-23 11:12:00,52.2,40.8,30.25,West,281,5.0,5.0,65,0.00,,,0.00,Wunderground v.1.15,2013-04-23 15:12:00,
2013-04-23 11:13:00,52.3,40.9,30.25,WNW,299,4.0,5.0,65,0.00,,,0.00,Wunderground v.1.15,2013-04-23 15:13:00,
2013-04-23 11:14:00,52.3,40.1,30.25,West,259,1.0,5.0,63,0.00,,,0.00,Wunderground v.1.15,2013-04-23 15:14:00,
2013-04-23 11:15:00,52.2,40.0,30.25,SSW,213,3.0,5.0,63,0.00,,,0.00,Wunderground v.1.15,2013-04-23 15:15:00,
2013-04-23 11:18:00,52.1,39.9,30.25,West,263,2.0,6.0,63,0.00,,,0.00,Wunderground v.1.15,2013-04-23 15:18:00,
2013-04-23 11:19:00,52.1,39.9,30.25,West,264,0.0,3.0,63,0.00,,,0.00,Wunderground v.1.15,2013-04-23 15:19:00,
2013-04-23 11:21:00,52.3,40.5,30.24,North,359,2.0,3.0,64,0.00,,,0.00,Wunderground v.1.15,2013-04-23 15:21:00,
2013-04-23 11:23:00,52.7,41.3,30.24,NE,38,5.0,6.0,65,0.00,,,0.00,Wunderground v.1.15,2013-04-23 15:23:00,
2013-04-23 11:24:00,52.7,40.9,30.24,ENE,59,5.0,6.0,64,0.00,,,0.00,Wunderground v.1.15,2013-04-23 15:24:00,
2013-04-23 11:25:00,52.6,40.4,30.24,ENE,74,4.0,6.0,63,0.00,,,0.00,Wunderground v.1.15,2013-04-23 15:25:00,
2013-04-23 11:27:00,52.5,40.3,30.24,East,82,3.0,6.0,63,0.00,,,0.00,Wunderground v.1.15,2013-04-23 15:27:00,
2013-04-23 11:28:00,52.5,41.1,30.25,ESE,103,2.0,6.0,65,0.00,,,0.00,Wunderground v.1.15,2013-04-23 15:28:00,
2013-04-23 11:29:00,52.6,40.8,30.25,NE,46,0.0,2.0,64,0.00,,,0.00,Wunderground v.1.15,2013-04-23 15:29:00,
2013-04-23 11:30:00,52.6,41.2,30.25,West,259,1.0,2.0,65,0.00,,,0.00,Wunderground v.1.15,2013-04-23 15:30:00,
2013-04-23 11:31:00,52.8,41.0,30.25,WNW,283,7.0,7.0,64,0.00,,,0.00,Wunderground v.1.15,2013-04-23 15:31:00,
2013-04-23 11:32:00,52.9,41.0,30.25,West,274,2.0,7.0,64,0.00,,,0.00,Wunderground v.1.15,2013-04-23 15:32:00,
2013-04-23 11:33:00,53.0,40.7,30.25,West,272,5.0,7.0,63,0.00,,,0.00,Wunderground v.1.15,2013-04-23 15:33:00,
2013-04-23 11:35:00,53.1,40.8,30.25,West,262,2.0,7.0,63,0.00,,,0.00,Wunderground v.1.15,2013-04-23 15:35:00,
2013-04-23 11:37:00,53.2,41.3,30.25,NNW,329,3.0,7.0,64,0.00,,,0.00,Wunderground v.1.15,2013-04-23 15:37:00,
2013-04-23 11:38:00,53.4,41.5,30.25,NW,312,0.0,7.0,64,0.00,,,0.00,Wunderground v.1.15,2013-04-23 15:38:00,
2013-04-23 11:40:00,53.7,42.2,30.25,WNW,293,2.0,3.0,65,0.00,,,0.00,Wunderground v.1.15,2013-04-23 15:40:00,
2013-04-23 11:41:00,53.8,41.9,30.25,WSW,250,1.0,3.0,64,0.00,,,0.00,Wunderground v.1.15,2013-04-23 15:41:00,
2013-04-23 11:42:00,53.9,42.0,30.25,WSW,250,0.0,3.0,64,0.00,,,0.00,Wunderground v.1.15,2013-04-23 15:42:00,
2013-04-23 11:44:00,54.2,43.1,30.24,West,273,1.0,3.0,66,0.00,,,0.00,Wunderground v.1.15,2013-04-23 15:44:00,
2013-04-23 11:45:00,54.5,41.7,30.25,NW,319,3.0,3.0,62,0.00,,,0.00,Wunderground v.1.15,2013-04-23 15:45:00,
2013-04-23 11:46:00,54.5,41.3,30.25,SSW,210,1.0,3.0,61,0.00,,,0.00,Wunderground v.1.15,2013-04-23 15:46:00,
2013-04-23 11:48:00,54.6,43.1,30.25,NE,37,0.0,3.0,65,0.00,,,0.00,Wunderground v.1.15,2013-04-23 15:48:00,
2013-04-23 11:50:00,54.9,42.9,30.24,NW,309,2.0,2.0,64,0.00,,,0.00,Wunderground v.1.15,2013-04-23 15:50:00,
2013-04-23 11:51:00,55.0,41.8,30.24,NW,310,1.0,5.0,61,0.00,,,0.00,Wunderground v.1.15,2013-04-23 15:51:00,
2013-04-23 11:53:00,55.0,42.2,30.24,North,10,1.0,5.0,62,0.00,,,0.00,Wunderground v.1.15,2013-04-23 15:53:00,
2013-04-23 11:55:00,55.2,43.2,30.24,NW,321,3.0,5.0,64,0.00,,,0.00,Wunderground v.1.15,2013-04-23 15:55:00,
2013-04-23 11:57:00,55.1,43.1,30.24,NNE,33,3.0,6.0,64,0.00,,,0.00,Wunderground v.1.15,2013-04-23 15:57:00,
2013-04-23 11:58:00,55.1,43.1,30.24,WNW,293,3.0,6.0,64,0.00,,,0.00,Wunderground v.1.15,2013-04-23 15:58:00,
2013-04-23 12:01:00,55.3,44.1,30.24,WNW,284,3.0,4.0,66,0.00,,,0.00,Wunderground v.1.15,2013-04-23 16:01:00,
2013-04-23 12:02:00,55.3,44.1,30.24,West,271,1.0,4.0,66,0.00,,,0.00,Wunderground v.1.15,2013-04-23 16:02:00,
2013-04-23 12:03:00,55.5,43.1,30.24,NE,56,2.0,4.0,63,0.00,,,0.00,Wunderground v.1.15,2013-04-23 16:03:00,
2013-04-23 12:07:00,55.8,43.8,30.23,NNE,30,6.0,7.0,64,0.00,,,0.00,Wunderground v.1.15,2013-04-23 16:07:00,
2013-04-23 12:08:00,55.8,43.8,30.23,NE,36,6.0,7.0,64,0.00,,,0.00,Wunderground v.1.15,2013-04-23 16:08:00,
2013-04-23 12:13:00,55.3,42.1,30.23,SE,132,1.0,8.0,61,0.00,,,0.00,Wunderground v.1.15,2013-04-23 16:13:00,
2013-04-23 12:14:00,55.2,42.4,30.24,ENE,71,3.0,8.0,62,0.00,,,0.00,Wunderground v.1.15,2013-04-23 16:14:00,
2013-04-23 12:18:00,55.3,42.5,30.24,West,271,4.0,8.0,62,0.00,,,0.00,Wunderground v.1.15,2013-04-23 16:18:00,
2013-04-23 12:19:00,55.4,42.2,30.24,WSW,253,3.0,8.0,61,0.00,,,0.00,Wunderground v.1.15,2013-04-23 16:19:00,
2013-04-23 12:20:00,55.5,41.8,30.24,WSW,244,1.0,3.0,60,0.00,,,0.00,Wunderground v.1.15,2013-04-23 16:20:00,
2013-04-23 12:23:00,55.8,43.4,30.23,NW,323,2.0,6.0,63,0.00,,,0.00,Wunderground v.1.15,2013-04-23 16:23:00,
2013-04-23 12:24:00,55.8,43.0,30.23,ENE,64,6.0,6.0,62,0.00,,,0.00,Wunderground v.1.15,2013-04-23 16:24:00,
2013-04-23 12:25:00,55.8,43.4,30.23,East,79,3.0,6.0,63,0.00,,,0.00,Wunderground v.1.15,2013-04-23 16:25:00,
2013-04-23 12:26:00,55.9,43.9,30.23,ENE,74,4.0,6.0,64,0.00,,,0.00,Wunderground v.1.15,2013-04-23 16:26:00,
2013-04-23 12:28:00,55.8,42.5,30.23,ENE,67,4.0,6.0,61,0.00,,,0.00,Wunderground v.1.15,2013-04-23 16:28:00,
2013-04-23 12:29:00,55.8,42.5,30.23,NE,53,3.0,6.0,61,0.00,,,0.00,Wunderground v.1.15,2013-04-23 16:29:00,
2013-04-23 12:31:00,55.8,43.0,30.23,East,89,4.0,4.0,62,0.00,,,0.00,Wunderground v.1.15,2013-04-23 16:31:00,
2013-04-23 12:33:00,55.7,42.0,30.23,East,80,0.0,8.0,60,0.00,,,0.00,Wunderground v.1.15,2013-04-23 16:33:00,
2013-04-23 12:34:00,55.7,42.5,30.23,SSW,203,1.0,8.0,61,0.00,,,0.00,Wunderground v.1.15,2013-04-23 16:34:00,
2013-04-23 12:36:00,55.9,43.1,30.23,ESE,108,2.0,8.0,62,0.00,,,0.00,Wunderground v.1.15,2013-04-23 16:36:00,
2013-04-23 12:38:00,56.2,42.9,30.22,East,93,0.0,8.0,61,0.00,,,0.00,Wunderground v.1.15,2013-04-23 16:38:00,
2013-04-23 12:40:00,56.5,43.2,30.22,NNW,342,2.0,3.0,61,0.00,,,0.00,Wunderground v.1.15,2013-04-23 16:40:00,
2013-04-23 12:41:00,56.8,43.9,30.22,NW,316,5.0,6.0,62,0.00,,,0.00,Wunderground v.1.15,2013-04-23 16:41:00,
2013-04-23 12:43:00,56.7,43.0,30.22,NNW,334,5.0,7.0,60,0.00,,,0.00,Wunderground v.1.15,2013-04-23 16:43:00,
2013-04-23 12:44:00,56.7,43.0,30.22,NW,316,4.0,7.0,60,0.00,,,0.00,Wunderground v.1.15,2013-04-23 16:44:00,
2013-04-23 12:45:00,56.7,44.2,30.22,NE,42,5.0,7.0,63,0.00,,,0.00,Wunderground v.1.15,2013-04-23 16:45:00,
2013-04-23 12:47:00,56.8,43.1,30.22,NNW,345,2.0,9.0,60,0.00,,,0.00,Wunderground v.1.15,2013-04-23 16:47:00,
2013-04-23 12:48:00,56.8,43.9,30.22,WNW,296,4.0,9.0,62,0.00,,,0.00,Wunderground v.1.15,2013-04-23 16:48:00,
2013-04-23 12:49:00,56.9,44.0,30.22,North,4,2.0,9.0,62,0.00,,,0.00,Wunderground v.1.15,2013-04-23 16:49:00,
2013-04-23 12:50:00,57.1,44.6,30.22,East,79,4.0,5.0,63,0.00,,,0.00,Wunderground v.1.15,2013-04-23 16:50:00,
2013-04-23 12:52:00,57.1,43.8,30.22,East,79,5.0,6.0,61,0.00,,,0.00,Wunderground v.1.15,2013-04-23 16:52:00,
2013-04-23 12:54:00,57.0,43.7,30.22,NNE,23,4.0,6.0,61,0.00,,,0.00,Wunderground v.1.15,2013-04-23 16:54:00,
2013-04-23 12:55:00,57.1,44.6,30.22,NNE,13,5.0,7.0,63,0.00,,,0.00,Wunderground v.1.15,2013-04-23 16:55:00,
2013-04-23 12:57:00,57.2,43.9,30.22,NNW,336,3.0,7.0,61,0.00,,,0.00,Wunderground v.1.15,2013-04-23 16:57:00,
2013-04-23 13:00:00,57.5,45.4,30.22,NE,46,6.0,6.0,64,0.00,,,0.00,Wunderground v.1.15,2013-04-23 17:00:00,
2013-04-23 13:01:00,57.6,45.1,30.22,ENE,61,4.0,7.0,63,0.00,,,0.00,Wunderground v.1.15,2013-04-23 17:01:00,
2013-04-23 13:02:00,57.8,45.7,30.22,ENE,58,5.0,7.0,64,0.00,,,0.00,Wunderground v.1.15,2013-04-23 17:02:00,
2013-04-23 13:05:00,57.8,44.0,30.22,NNW,340,5.0,8.0,60,0.00,,,0.00,Wunderground v.1.15,2013-04-23 17:05:00,
2013-04-23 13:06:00,57.7,43.9,30.22,NNW,347,4.0,8.0,60,0.00,,,0.00,Wunderground v.1.15,2013-04-23 17:06:00,
2013-04-23 13:07:00,57.7,43.5,30.22,WNW,287,2.0,8.0,59,0.00,,,0.00,Wunderground v.1.15,2013-04-23 17:07:00,
2013-04-23 13:10:00,57.8,44.4,30.22,NNE,33,5.0,7.0,61,0.00,,,0.00,Wunderground v.1.15,2013-04-23 17:10:00,
2013-04-23 13:11:00,57.8,44.0,30.22,NNE,30,4.0,7.0,60,0.00,,,0.00,Wunderground v.1.15,2013-04-23 17:11:00,
2013-04-23 13:12:00,57.9,45.4,30.22,NNE,13,2.0,7.0,63,0.00,,,0.00,Wunderground v.1.15,2013-04-23 17:12:00,
2013-04-23 13:15:00,58.3,44.5,30.22,NNW,342,0.0,7.0,60,0.00,,,0.00,Wunderground v.1.15,2013-04-23 17:15:00,
2013-04-23 13:16:00,58.4,44.6,30.22,North,352,1.0,7.0,60,0.00,,,0.00,Wunderground v.1.15,2013-04-23 17:16:00,
2013-04-23 13:17:00,58.4,44.6,30.22,NNW,336,2.0,7.0,60,0.00,,,0.00,Wunderground v.1.15,2013-04-23 17:17:00,
2013-04-23 13:20:00,58.7,44.8,30.21,NNE,29,2.0,3.0,60,0.00,,,0.00,Wunderground v.1.15,2013-04-23 17:20:00,
2013-04-23 13:21:00,58.7,44.8,30.21,NNE,26,2.0,4.0,60,0.00,,,0.00,Wunderground v.1.15,2013-04-23 17:21:00,
2013-04-23 13:22:00,58.7,44.4,30.21,NNW,335,2.0,4.0,59,0.00,,,0.00,Wunderground v.1.15,2013-04-23 17:22:00,
2013-04-23 13:23:00,58.7,44.4,30.21,NNE,13,1.0,4.0,59,0.00,,,0.00,Wunderground v.1.15,2013-04-23 17:23:00,
2013-04-23 13:25:00,59.1,46.1,30.21,NW,321,3.0,5.0,62,0.00,,,0.00,Wunderground v.1.15,2013-04-23 17:25:00,
2013-04-23 13:26:00,59.2,45.8,30.21,NE,40,2.0,5.0,61,0.00,,,0.00,Wunderground v.1.15,2013-04-23 17:26:00,
2013-04-23 13:27:00,59.3,45.8,30.21,NNE,30,1.0,5.0,61,0.00,,,0.00,Wunderground v.1.15,2013-04-23 17:27:00,
2013-04-23 13:28:00,59.4,45.9,30.21,North,351,4.0,5.0,61,0.00,,,0.00,Wunderground v.1.15,2013-04-23 17:28:00,
2013-04-23 13:31:00,59.5,45.2,30.20,NE,34,7.0,7.0,59,0.00,,,0.00,Wunderground v.1.15,2013-04-23 17:31:00,
2013-04-23 13:32:00,59.4,44.6,30.20,North,351,5.0,9.0,58,0.00,,,0.00,Wunderground v.1.15,2013-04-23 17:32:00,
2013-04-23 13:33:00,59.4,44.6,30.20,NNE,32,5.0,9.0,58,0.00,,,0.00,Wunderground v.1.15,2013-04-23 17:33:00,
2013-04-23 13:35:00,59.3,44.5,30.20,NE,46,5.0,9.0,58,0.00,,,0.00,Wunderground v.1.15,2013-04-23 17:35:00,
2013-04-23 13:36:00,59.2,44.9,30.19,North,7,5.0,9.0,59,0.00,,,0.00,Wunderground v.1.15,2013-04-23 17:36:00,
2013-04-23 13:37:00,59.0,43.8,30.19,NNW,333,4.0,9.0,57,0.00,,,0.00,Wunderground v.1.15,2013-04-23 17:37:00,
2013-04-23 13:39:00,58.9,43.7,30.19,NNE,22,3.0,9.0,57,0.00,,,0.00,Wunderground v.1.15,2013-04-23 17:39:00,
2013-04-23 13:40:00,58.8,44.0,30.19,North,351,2.0,5.0,58,0.00,,,0.00,Wunderground v.1.15,2013-04-23 17:40:00,
2013-04-23 13:41:00,58.8,44.5,30.19,NW,316,2.0,5.0,59,0.00,,,0.00,Wunderground v.1.15,2013-04-23 17:41:00,
2013-04-23 13:42:00,59.0,44.7,30.19,NNW,333,2.0,5.0,59,0.00,,,0.00,Wunderground v.1.15,2013-04-23 17:42:00,
2013-04-23 13:44:00,59.3,45.4,30.19,ESE,102,2.0,5.0,60,0.00,,,0.00,Wunderground v.1.15,2013-04-23 17:44:00,
2013-04-23 13:45:00,59.5,45.6,30.19,WSW,238,2.0,5.0,60,0.00,,,0.00,Wunderground v.1.15,2013-04-23 17:45:00,
2013-04-23 13:46:00,59.5,45.6,30.19,NE,36,3.0,5.0,60,0.00,,,0.00,Wunderground v.1.15,2013-04-23 17:46:00,
2013-04-23 13:48:00,59.8,45.9,30.18,East,86,3.0,5.0,60,0.00,,,0.00,Wunderground v.1.15,2013-04-23 17:48:00,
2013-04-23 13:49:00,59.9,45.1,30.18,ESE,108,3.0,3.0,58,0.00,,,0.00,Wunderground v.1.15,2013-04-23 17:49:00,
2013-04-23 13:50:00,59.8,45.0,30.18,East,100,2.0,3.0,58,0.00,,,0.00,Wunderground v.1.15,2013-04-23 17:50:00,
2013-04-23 13:51:00,59.8,45.0,30.18,NE,49,2.0,6.0,58,0.00,,,0.00,Wunderground v.1.15,2013-04-23 17:51:00,
2013-04-23 13:53:00,59.9,45.5,30.19,ENE,58,7.0,7.0,59,0.00,,,0.00,Wunderground v.1.15,2013-04-23 17:53:00,
2013-04-23 13:55:00,59.9,44.6,30.18,ENE,60,6.0,8.0,57,0.00,,,0.00,Wunderground v.1.15,2013-04-23 17:55:00,
2013-04-23 13:56:00,59.7,44.4,30.18,NE,50,4.0,8.0,57,0.00,,,0.00,Wunderground v.1.15,2013-04-23 17:56:00,
2013-04-23 13:57:00,59.7,44.4,30.18,NE,56,4.0,8.0,57,0.00,,,0.00,Wunderground v.1.15,2013-04-23 17:57:00,
2013-04-23 13:58:00,59.7,45.8,30.18,ENE,75,3.0,8.0,60,0.00,,,0.00,Wunderground v.1.15,2013-04-23 17:58:00,
2013-04-23 14:00:00,59.8,45.4,30.17,NE,52,1.0,5.0,59,0.00,,,0.00,Wunderground v.1.15,2013-04-23 18:00:00,
2013-04-23 14:02:00,60.0,45.2,30.18,NNE,18,1.0,5.0,58,0.00,,,0.00,Wunderground v.1.15,2013-04-23 18:02:00,
2013-04-23 14:03:00,60.1,44.8,30.18,NNE,18,1.0,5.0,57,0.00,,,0.00,Wunderground v.1.15,2013-04-23 18:03:00,
2013-04-23 14:05:00,60.5,45.6,30.18,North,11,2.0,5.0,58,0.00,,,0.00,Wunderground v.1.15,2013-04-23 18:05:00,
2013-04-23 14:09:00,60.8,45.0,30.17,NE,52,1.0,5.0,56,0.00,,,0.00,Wunderground v.1.15,2013-04-23 18:09:00,
2013-04-23 14:10:00,60.9,46.5,30.18,ENE,75,3.0,3.0,59,0.00,,,0.00,Wunderground v.1.15,2013-04-23 18:10:00,
2013-04-23 14:14:00,60.9,44.1,30.17,NNE,25,2.0,7.0,54,0.00,,,0.00,Wunderground v.1.15,2013-04-23 18:14:00,
2013-04-23 14:15:00,60.9,45.1,30.17,NNE,16,2.0,7.0,56,0.00,,,0.00,Wunderground v.1.15,2013-04-23 18:15:00,
2013-04-23 14:16:00,60.9,45.1,30.17,NNE,32,5.0,7.0,56,0.00,,,0.00,Wunderground v.1.15,2013-04-23 18:16:00,
2013-04-23 14:19:00,60.7,45.4,30.17,ENE,65,3.0,7.0,57,0.00,,,0.00,Wunderground v.1.15,2013-04-23 18:19:00,
2013-04-23 14:20:00,60.7,44.4,30.17,ESE,104,1.0,4.0,55,0.00,,,0.00,Wunderground v.1.15,2013-04-23 18:20:00,
2013-04-23 14:22:00,60.9,45.1,30.18,ESE,103,1.0,4.0,56,0.00,,,0.00,Wunderground v.1.15,2013-04-23 18:22:00,
2013-04-23 14:24:00,61.2,45.8,30.17,NNE,29,1.0,4.0,57,0.00,,,0.00,Wunderground v.1.15,2013-04-23 18:24:00,
2013-04-23 14:25:00,61.4,46.5,30.17,NE,38,3.0,4.0,58,0.00,,,0.00,Wunderground v.1.15,2013-04-23 18:25:00,
2013-04-23 14:27:00,61.7,45.4,30.17,NNE,18,4.0,5.0,55,0.00,,,0.00,Wunderground v.1.15,2013-04-23 18:27:00,
2013-04-23 14:29:00,61.8,45.5,30.17,ENE,58,3.0,3.0,55,0.00,,,0.00,Wunderground v.1.15,2013-04-23 18:29:00,
2013-04-23 14:30:00,61.8,45.5,30.17,East,79,3.0,4.0,55,0.00,,,0.00,Wunderground v.1.15,2013-04-23 18:30:00,
2013-04-23 14:31:00,61.8,45.5,30.17,ENE,75,2.0,4.0,55,0.00,,,0.00,Wunderground v.1.15,2013-04-23 18:31:00,
2013-04-23 14:32:00,62.0,46.6,30.17,NW,315,2.0,4.0,57,0.00,,,0.00,Wunderground v.1.15,2013-04-23 18:32:00,
2013-04-23 14:35:00,62.2,45.8,30.17,NE,37,6.0,6.0,55,0.00,,,0.00,Wunderground v.1.15,2013-04-23 18:35:00,
2013-04-23 14:36:00,62.3,46.4,30.17,ENE,58,3.0,6.0,56,0.00,,,0.00,Wunderground v.1.15,2013-04-23 18:36:00,
2013-04-23 14:38:00,62.3,46.4,30.17,NNE,30,4.0,6.0,56,0.00,,,0.00,Wunderground v.1.15,2013-04-23 18:38:00,
2013-04-23 14:40:00,62.2,45.8,30.17,ENE,69,3.0,4.0,55,0.00,,,0.00,Wunderground v.1.15,2013-04-23 18:40:00,
2013-04-23 14:42:00,62.1,45.2,30.16,ESE,103,3.0,4.0,54,0.00,,,0.00,Wunderground v.1.15,2013-04-23 18:42:00,
2013-04-23 14:43:00,62.1,44.8,30.16,ENE,70,4.0,4.0,53,0.00,,,0.00,Wunderground v.1.15,2013-04-23 18:43:00,
2013-04-23 14:47:00,62.4,46.5,30.16,North,1,2.0,4.0,56,0.00,,,0.00,Wunderground v.1.15,2013-04-23 18:47:00,
2013-04-23 14:48:00,62.6,46.2,30.16,ENE,64,2.0,4.0,55,0.00,,,0.00,Wunderground v.1.15,2013-04-23 18:48:00,
2013-04-23 14:52:00,63.1,45.2,30.16,East,91,0.0,2.0,52,0.00,,,0.00,Wunderground v.1.15,2013-04-23 18:52:00,
2013-04-23 14:53:00,63.2,45.3,30.16,SE,142,0.0,2.0,52,0.00,,,0.00,Wunderground v.1.15,2013-04-23 18:53:00,
2013-04-23 14:54:00,63.5,46.6,30.16,NNE,15,4.0,5.0,54,0.00,,,0.00,Wunderground v.1.15,2013-04-23 18:54:00,
2013-04-23 14:57:00,63.8,47.8,30.16,NNW,343,1.0,5.0,56,0.00,,,0.00,Wunderground v.1.15,2013-04-23 18:57:00,
2013-04-23 14:58:00,63.8,47.8,30.16,West,281,1.0,5.0,56,0.00,,,0.00,Wunderground v.1.15,2013-04-23 18:58:00,
2013-04-23 15:00:00,64.0,46.5,30.16,NE,37,0.0,1.0,53,0.00,,,0.00,Wunderground v.1.15,2013-04-23 19:00:00,
2013-04-23 15:03:00,64.6,46.6,30.15,WSW,256,1.0,2.0,52,0.00,,,0.00,Wunderground v.1.15,2013-04-23 19:03:00,
2013-04-23 15:04:00,64.7,45.1,30.15,SW,235,2.0,2.0,49,0.00,,,0.00,Wunderground v.1.15,2013-04-23 19:04:00,
2013-04-23 15:05:00,64.7,45.1,30.15,WSW,246,0.0,2.0,49,0.00,,,0.00,Wunderground v.1.15,2013-04-23 19:05:00,
2013-04-23 15:08:00,64.8,46.8,30.15,NE,56,3.0,3.0,52,0.00,,,0.00,Wunderground v.1.15,2013-04-23 19:08:00,
2013-04-23 15:09:00,64.8,46.8,30.15,ENE,58,1.0,3.0,52,0.00,,,0.00,Wunderground v.1.15,2013-04-23 19:09:00,
2013-04-23 15:11:00,64.7,46.1,30.15,NE,44,3.0,5.0,51,0.00,,,0.00,Wunderground v.1.15,2013-04-23 19:11:00,
2013-04-23 15:14:00,64.4,45.3,30.15,NNE,32,4.0,9.0,50,0.00,,,0.00,Wunderground v.1.15,2013-04-23 19:14:00,
2013-04-23 15:16:00,64.0,45.5,30.15,NE,43,6.0,9.0,51,0.00,,,0.00,Wunderground v.1.15,2013-04-23 19:16:00,
2013-04-23 15:19:00,63.7,46.7,30.14,ENE,67,3.0,9.0,54,0.00,,,0.00,Wunderground v.1.15,2013-04-23 19:19:00,
2013-04-23 15:20:00,63.7,46.2,30.14,ENE,68,3.0,4.0,53,0.00,,,0.00,Wunderground v.1.15,2013-04-23 19:20:00,
2013-04-23 15:21:00,63.7,46.2,30.14,NE,49,6.0,7.0,53,0.00,,,0.00,Wunderground v.1.15,2013-04-23 19:21:00,
2013-04-23 15:24:00,63.5,48.0,30.14,NNE,12,5.0,9.0,57,0.00,,,0.00,Wunderground v.1.15,2013-04-23 19:24:00,
2013-04-23 15:25:00,63.5,47.0,30.14,NE,50,2.0,9.0,55,0.00,,,0.00,Wunderground v.1.15,2013-04-23 19:25:00,
2013-04-23 15:26:00,63.5,47.0,30.13,NE,51,5.0,9.0,55,0.00,,,0.00,Wunderground v.1.15,2013-04-23 19:26:00,
2013-04-23 15:29:00,63.4,46.0,30.13,ENE,63,3.0,9.0,53,0.00,,,0.00,Wunderground v.1.15,2013-04-23 19:29:00,
2013-04-23 15:30:00,63.3,45.9,30.13,NNE,23,4.0,5.0,53,0.00,,,0.00,Wunderground v.1.15,2013-04-23 19:30:00,
2013-04-23 15:31:00,63.3,44.9,30.13,WNW,290,1.0,5.0,51,0.00,,,0.00,Wunderground v.1.15,2013-04-23 19:31:00,
2013-04-23 15:34:00,63.6,46.6,30.13,ENE,64,10.0,10.0,54,0.00,,,0.00,Wunderground v.1.15,2013-04-23 19:34:00,
2013-04-23 15:35:00,63.5,46.1,30.13,ENE,71,10.0,10.0,53,0.00,,,0.00,Wunderground v.1.15,2013-04-23 19:35:00,
2013-04-23 15:36:00,63.5,45.6,30.13,ENE,71,6.0,11.0,52,0.00,,,0.00,Wunderground v.1.15,2013-04-23 19:36:00,
2013-04-23 15:37:00,63.3,45.9,30.12,NE,43,6.0,11.0,53,0.00,,,0.00,Wunderground v.1.15,2013-04-23 19:37:00,
2013-04-23 15:40:00,62.9,45.0,30.13,East,83,3.0,6.0,52,0.00,,,0.00,Wunderground v.1.15,2013-04-23 19:40:00,
2013-04-23 15:41:00,62.9,45.0,30.12,ENE,64,5.0,6.0,52,0.00,,,0.00,Wunderground v.1.15,2013-04-23 19:41:00,
2013-04-23 15:42:00,62.8,44.4,30.12,ENE,64,4.0,6.0,51,0.00,,,0.00,Wunderground v.1.15,2013-04-23 19:42:00,
2013-04-23 15:46:00,62.9,44.5,30.12,North,7,3.0,6.0,51,0.00,,,0.00,Wunderground v.1.15,2013-04-23 19:46:00,
2013-04-23 15:47:00,63.0,46.1,30.12,ENE,71,1.0,6.0,54,0.00,,,0.00,Wunderground v.1.15,2013-04-23 19:47:00,
2013-04-23 15:51:00,63.2,46.8,30.12,NNE,29,4.0,6.0,55,0.00,,,0.00,Wunderground v.1.15,2013-04-23 19:51:00,
2013-04-23 15:52:00,63.3,47.3,30.12,NW,309,2.0,6.0,56,0.00,,,0.00,Wunderground v.1.15,2013-04-23 19:52:00,
2013-04-23 15:56:00,63.4,46.9,30.11,WNW,299,7.0,8.0,55,0.00,,,0.00,Wunderground v.1.15,2013-04-23 19:56:00,
2013-04-23 15:57:00,63.3,46.4,30.11,NW,309,4.0,8.0,54,0.00,,,0.00,Wunderground v.1.15,2013-04-23 19:57:00,
2013-04-23 16:01:00,63.3,46.4,30.11,NW,309,3.0,10.0,54,0.00,,,0.00,Wunderground v.1.15,2013-04-23 20:01:00,
2013-04-23 16:02:00,63.3,46.4,30.11,NW,315,4.0,10.0,54,0.00,,,0.00,Wunderground v.1.15,2013-04-23 20:02:00,
2013-04-23 16:03:00,63.3,46.4,30.11,NNW,334,4.0,10.0,54,0.00,,,0.00,Wunderground v.1.15,2013-04-23 20:03:00,
2013-04-23 16:06:00,63.4,46.9,30.11,WNW,293,4.0,10.0,55,0.00,,,0.00,Wunderground v.1.15,2013-04-23 20:06:00,
2013-04-23 16:08:00,63.4,46.0,30.11,NNE,12,5.0,10.0,53,0.00,,,0.00,Wunderground v.1.15,2013-04-23 20:08:00,
2013-04-23 16:12:00,63.4,46.5,30.11,NNE,23,5.0,7.0,54,0.00,,,0.00,Wunderground v.1.15,2013-04-23 20:12:00,
2013-04-23 16:13:00,63.3,45.9,30.11,ENE,57,2.0,7.0,53,0.00,,,0.00,Wunderground v.1.15,2013-04-23 20:13:00,
2013-04-23 16:14:00,63.3,46.4,30.11,NNE,33,4.0,7.0,54,0.00,,,0.00,Wunderground v.1.15,2013-04-23 20:14:00,
2013-04-23 16:17:00,63.4,46.9,30.11,NW,309,4.0,10.0,55,0.00,,,0.00,Wunderground v.1.15,2013-04-23 20:17:00,
2013-04-23 16:18:00,63.4,46.9,30.11,NW,315,3.0,10.0,55,0.00,,,0.00,Wunderground v.1.15,2013-04-23 20:18:00,
2013-04-23 16:19:00,63.4,46.9,30.11,NNE,23,3.0,10.0,55,0.00,,,0.00,Wunderground v.1.15,2013-04-23 20:19:00,
2013-04-23 16:22:00,63.6,47.1,30.10,NE,46,8.0,11.0,55,0.00,,,0.00,Wunderground v.1.15,2013-04-23 20:22:00,
2013-04-23 16:23:00,63.5,47.0,30.11,North,1,6.0,11.0,55,0.00,,,0.00,Wunderground v.1.15,2013-04-23 20:23:00,
2013-04-23 16:24:00,63.4,46.5,30.10,NE,54,2.0,11.0,54,0.00,,,0.00,Wunderground v.1.15,2013-04-23 20:24:00,
2013-04-23 16:25:00,63.3,46.4,30.10,NNE,24,4.0,11.0,54,0.00,,,0.00,Wunderground v.1.15,2013-04-23 20:25:00,
2013-04-23 16:27:00,63.3,47.3,30.10,NE,41,6.0,11.0,56,0.00,,,0.00,Wunderground v.1.15,2013-04-23 20:27:00,
2013-04-23 16:28:00,63.2,47.2,30.10,NW,321,5.0,11.0,56,0.00,,,0.00,Wunderground v.1.15,2013-04-23 20:28:00,
2013-04-23 16:29:00,63.2,46.8,30.10,NNW,342,4.0,11.0,55,0.00,,,0.00,Wunderground v.1.15,2013-04-23 20:29:00,
2013-04-23 16:30:00,63.2,45.8,30.10,NE,41,8.0,9.0,53,0.00,,,0.00,Wunderground v.1.15,2013-04-23 20:30:00,
2013-04-23 16:33:00,63.1,46.2,30.10,North,9,5.0,9.0,54,0.00,,,0.00,Wunderground v.1.15,2013-04-23 20:33:00,
2013-04-23 16:34:00,63.1,46.7,30.10,NNW,333,5.0,9.0,55,0.00,,,0.00,Wunderground v.1.15,2013-04-23 20:34:00,
2013-04-23 16:35:00,63.2,46.8,30.10,North,356,3.0,9.0,55,0.00,,,0.00,Wunderground v.1.15,2013-04-23 20:35:00,
2013-04-23 16:38:00,63.3,47.8,30.10,NNW,347,7.0,9.0,57,0.00,,,0.00,Wunderground v.1.15,2013-04-23 20:38:00,
2013-04-23 16:40:00,63.3,46.9,30.10,NE,41,7.0,9.0,55,0.00,,,0.00,Wunderground v.1.15,2013-04-23 20:40:00,
2013-04-23 16:41:00,63.3,46.9,30.10,NNW,333,4.0,9.0,55,0.00,,,0.00,Wunderground v.1.15,2013-04-23 20:41:00,
2013-04-23 16:44:00,63.3,46.9,30.10,NNE,15,8.0,9.0,55,0.00,,,0.00,Wunderground v.1.15,2013-04-23 20:44:00,
2013-04-23 16:45:00,63.3,46.4,30.10,NNE,13,4.0,9.0,54,0.00,,,0.00,Wunderground v.1.15,2013-04-23 20:45:00,
2013-04-23 16:47:00,63.3,46.9,30.10,NNE,20,6.0,9.0,55,0.00,,,0.00,Wunderground v.1.15,2013-04-23 20:47:00,
2013-04-23 16:49:00,63.3,47.3,30.10,NE,36,7.0,9.0,56,0.00,,,0.00,Wunderground v.1.15,2013-04-23 20:49:00,
2013-04-23 16:50:00,63.3,47.3,30.10,NNE,13,8.0,10.0,56,0.00,,,0.00,Wunderground v.1.15,2013-04-23 20:50:00,
2013-04-23 16:51:00,63.3,47.3,30.10,North,349,5.0,10.0,56,0.00,,,0.00,Wunderground v.1.15,2013-04-23 20:51:00,
2013-04-23 16:52:00,63.3,47.8,30.10,ENE,58,5.0,10.0,57,0.00,,,0.00,Wunderground v.1.15,2013-04-23 20:52:00,
2013-04-23 16:55:00,63.3,47.8,30.10,NW,321,7.0,10.0,57,0.00,,,0.00,Wunderground v.1.15,2013-04-23 20:55:00,
2013-04-23 16:56:00,63.3,46.9,30.10,NE,40,7.0,10.0,55,0.00,,,0.00,Wunderground v.1.15,2013-04-23 20:56:00,
2013-04-23 16:57:00,63.2,46.8,30.10,North,5,10.0,11.0,55,0.00,,,0.00,Wunderground v.1.15,2013-04-23 20:57:00,
2013-04-23 17:00:00,63.2,46.8,30.10,NNE,20,5.0,8.0,55,0.00,,,0.00,Wunderground v.1.15,2013-04-23 21:00:00,
2013-04-23 17:01:00,63.2,47.2,30.10,NNW,328,8.0,9.0,56,0.00,,,0.00,Wunderground v.1.15,2013-04-23 21:01:00,
2013-04-23 17:02:00,63.2,46.3,30.10,North,8,11.0,11.0,54,0.00,,,0.00,Wunderground v.1.15,2013-04-23 21:02:00,
2013-04-23 17:05:00,63.1,48.1,30.10,NE,42,8.0,12.0,58,0.00,,,0.00,Wunderground v.1.15,2013-04-23 21:05:00,
2013-04-23 17:06:00,63.1,48.1,30.10,NE,41,8.0,12.0,58,0.00,,,0.00,Wunderground v.1.15,2013-04-23 21:06:00,
2013-04-23 17:07:00,63.1,48.1,30.10,NNE,33,5.0,12.0,58,0.00,,,0.00,Wunderground v.1.15,2013-04-23 21:07:00,
2013-04-23 17:08:00,63.1,47.1,30.10,North,9,4.0,12.0,56,0.00,,,0.00,Wunderground v.1.15,2013-04-23 21:08:00,
2013-04-23 17:11:00,63.2,46.8,30.10,NNE,20,9.0,11.0,55,0.00,,,0.00,Wunderground v.1.15,2013-04-23 21:11:00,
2013-04-23 17:12:00,63.2,46.8,30.10,North,7,8.0,12.0,55,0.00,,,0.00,Wunderground v.1.15,2013-04-23 21:12:00,
2013-04-23 17:14:00,63.0,47.1,30.10,North,8,4.0,12.0,56,0.00,,,0.00,Wunderground v.1.15,2013-04-23 21:14:00,
2013-04-23 17:16:00,63.1,47.6,30.10,NNE,13,5.0,12.0,57,0.00,,,0.00,Wunderground v.1.15,2013-04-23 21:16:00,
2013-04-23 17:17:00,63.1,47.6,30.10,NNE,16,5.0,12.0,57,0.00,,,0.00,Wunderground v.1.15,2013-04-23 21:17:00,
2013-04-23 17:18:00,63.2,48.2,30.10,North,7,4.0,12.0,58,0.00,,,0.00,Wunderground v.1.15,2013-04-23 21:18:00,
2013-04-23 17:19:00,63.2,47.2,30.10,NW,316,4.0,6.0,56,0.00,,,0.00,Wunderground v.1.15,2013-04-23 21:19:00,
2013-04-23 17:22:00,63.1,46.7,30.10,NNE,29,8.0,10.0,55,0.00,,,0.00,Wunderground v.1.15,2013-04-23 21:22:00,
2013-04-23 17:24:00,63.0,46.6,30.10,NNE,15,6.0,10.0,55,0.00,,,0.00,Wunderground v.1.15,2013-04-23 21:24:00,
2013-04-23 17:25:00,63.0,47.1,30.10,NE,46,8.0,10.0,56,0.00,,,0.00,Wunderground v.1.15,2013-04-23 21:25:00,
2013-04-23 17:27:00,63.0,47.1,30.10,NNE,25,9.0,11.0,56,0.00,,,0.00,Wunderground v.1.15,2013-04-23 21:27:00,
2013-04-23 17:28:00,63.0,47.1,30.10,NNE,25,9.0,11.0,56,0.00,,,0.00,Wunderground v.1.15,2013-04-23 21:28:00,
2013-04-23 17:29:00,62.8,46.9,30.10,North,352,5.0,11.0,56,0.00,,,0.00,Wunderground v.1.15,2013-04-23 21:29:00,
2013-04-23 17:31:00,62.7,46.8,30.10,NNE,25,7.0,8.0,56,0.00,,,0.00,Wunderground v.1.15,2013-04-23 21:31:00,
2013-04-23 17:32:00,62.7,47.2,30.10,NNW,334,5.0,8.0,57,0.00,,,0.00,Wunderground v.1.15,2013-04-23 21:32:00,
2013-04-23 17:33:00,62.7,46.8,30.10,NNW,344,7.0,8.0,56,0.00,,,0.00,Wunderground v.1.15,2013-04-23 21:33:00,
2013-04-23 17:35:00,62.7,46.8,30.10,NNE,20,4.0,9.0,56,0.00,,,0.00,Wunderground v.1.15,2013-04-23 21:35:00,
2013-04-23 17:36:00,62.8,47.3,30.10,North,5,5.0,9.0,57,0.00,,,0.00,Wunderground v.1.15,2013-04-23 21:36:00,
2013-04-23 17:39:00,62.8,47.3,30.10,NW,311,6.0,12.0,57,0.00,,,0.00,Wunderground v.1.15,2013-04-23 21:39:00,
2013-04-23 17:40:00,62.8,47.3,30.09,NNE,27,3.0,6.0,57,0.00,,,0.00,Wunderground v.1.15,2013-04-23 21:40:00,
2013-04-23 17:41:00,62.8,47.8,30.10,NNE,23,5.0,6.0,58,0.00,,,0.00,Wunderground v.1.15,2013-04-23 21:41:00,
2013-04-23 17:44:00,62.9,47.9,30.10,NNE,26,9.0,9.0,58,0.00,,,0.00,Wunderground v.1.15,2013-04-23 21:44:00,
2013-04-23 17:45:00,62.8,47.3,30.10,North,355,5.0,9.0,57,0.00,,,0.00,Wunderground v.1.15,2013-04-23 21:45:00,
2013-04-23 17:46:00,62.8,46.9,30.10,NE,41,3.0,9.0,56,0.00,,,0.00,Wunderground v.1.15,2013-04-23 21:46:00,
2013-04-23 17:47:00,62.7,46.8,30.10,North,4,7.0,9.0,56,0.00,,,0.00,Wunderground v.1.15,2013-04-23 21:47:00,
2013-04-23 17:49:00,62.7,46.8,30.10,North,356,7.0,9.0,56,0.00,,,0.00,Wunderground v.1.15,2013-04-23 21:49:00,
2013-04-23 17:50:00,62.6,47.1,30.09,NNW,342,4.0,6.0,57,0.00,,,0.00,Wunderground v.1.15,2013-04-23 21:50:00,
2013-04-23 17:52:00,62.6,46.7,30.10,NNE,16,8.0,8.0,56,0.00,,,0.00,Wunderground v.1.15,2013-04-23 21:52:00,
2013-04-23 17:54:00,62.4,46.0,30.10,North,349,7.0,10.0,55,0.00,,,0.00,Wunderground v.1.15,2013-04-23 21:54:00,
2013-04-23 17:55:00,62.4,46.0,30.10,NNE,16,6.0,10.0,55,0.00,,,0.00,Wunderground v.1.15,2013-04-23 21:55:00,
2013-04-23 17:56:00,62.3,45.9,30.10,North,359,11.0,12.0,55,0.00,,,0.00,Wunderground v.1.15,2013-04-23 21:56:00,
2013-04-23 17:57:00,62.2,46.3,30.09,North,351,4.0,12.0,56,0.00,,,0.00,Wunderground v.1.15,2013-04-23 21:57:00,
2013-04-23 18:00:00,62.1,46.7,30.10,NNW,347,5.0,6.0,57,0.00,,,0.00,Wunderground v.1.15,2013-04-23 22:00:00,
2013-04-23 18:01:00,62.0,46.6,30.09,NNE,23,5.0,7.0,57,0.00,,,0.00,Wunderground v.1.15,2013-04-23 22:01:00,
2013-04-23 18:03:00,62.0,47.0,30.09,NE,37,4.0,7.0,58,0.00,,,0.00,Wunderground v.1.15,2013-04-23 22:03:00,
2013-04-23 18:05:00,62.0,47.0,30.09,North,358,7.0,7.0,58,0.00,,,0.00,Wunderground v.1.15,2013-04-23 22:05:00,
2013-04-23 18:06:00,62.0,47.0,30.09,NNW,342,3.0,7.0,58,0.00,,,0.00,Wunderground v.1.15,2013-04-23 22:06:00,
2013-04-23 18:08:00,62.0,47.0,30.09,NNE,30,10.0,10.0,58,0.00,,,0.00,Wunderground v.1.15,2013-04-23 22:08:00,
2013-04-23 18:10:00,61.8,46.9,30.09,NNW,340,3.0,7.0,58,0.00,,,0.00,Wunderground v.1.15,2013-04-23 22:10:00,
2013-04-23 18:12:00,61.7,46.8,30.09,North,7,3.0,9.0,58,0.00,,,0.00,Wunderground v.1.15,2013-04-23 22:12:00,
2013-04-23 18:13:00,61.7,47.2,30.09,NNE,30,2.0,9.0,59,0.00,,,0.00,Wunderground v.1.15,2013-04-23 22:13:00,
2013-04-23 18:16:00,61.7,46.8,30.09,North,9,5.0,9.0,58,0.00,,,0.00,Wunderground v.1.15,2013-04-23 22:16:00,
2013-04-23 18:17:00,61.6,46.7,30.09,North,353,7.0,9.0,58,0.00,,,0.00,Wunderground v.1.15,2013-04-23 22:17:00,
2013-04-23 18:19:00,61.5,46.6,30.09,NNW,338,4.0,9.0,58,0.00,,,0.00,Wunderground v.1.15,2013-04-23 22:19:00,
2013-04-23 18:21:00,61.3,46.8,30.09,NNW,332,6.0,7.0,59,0.00,,,0.00,Wunderground v.1.15,2013-04-23 22:21:00,
2013-04-23 18:23:00,61.2,46.8,30.09,NNW,333,7.0,8.0,59,0.00,,,0.00,Wunderground v.1.15,2013-04-23 22:23:00,
2013-04-23 18:24:00,61.1,46.7,30.09,North,352,7.0,11.0,59,0.00,,,0.00,Wunderground v.1.15,2013-04-23 22:24:00,
2013-04-23 18:26:00,61.0,46.6,30.09,North,349,4.0,11.0,59,0.00,,,0.00,Wunderground v.1.15,2013-04-23 22:26:00,
2013-04-23 18:27:00,60.9,46.5,30.09,NNE,13,5.0,11.0,59,0.00,,,0.00,Wunderground v.1.15,2013-04-23 22:27:00,
2013-04-23 18:29:00,60.8,46.8,30.09,North,360,3.0,11.0,60,0.00,,,0.00,Wunderground v.1.15,2013-04-23 22:29:00,
2013-04-23 18:30:00,60.8,46.8,30.08,NNE,18,8.0,11.0,60,0.00,,,0.00,Wunderground v.1.15,2013-04-23 22:30:00,
2013-04-23 18:31:00,60.7,46.7,30.09,NNW,327,4.0,11.0,60,0.00,,,0.00,Wunderground v.1.15,2013-04-23 22:31:00,
2013-04-23 18:33:00,60.6,46.6,30.08,NNW,336,6.0,11.0,60,0.00,,,0.00,Wunderground v.1.15,2013-04-23 22:33:00,
2013-04-23 18:34:00,60.6,46.6,30.09,NNE,14,5.0,11.0,60,0.00,,,0.00,Wunderground v.1.15,2013-04-23 22:34:00,
2013-04-23 18:36:00,60.5,46.5,30.09,NW,315,3.0,11.0,60,0.00,,,0.00,Wunderground v.1.15,2013-04-23 22:36:00,
2013-04-23 18:38:00,60.4,46.4,30.09,North,359,5.0,11.0,60,0.00,,,0.00,Wunderground v.1.15,2013-04-23 22:38:00,
2013-04-23 18:39:00,60.4,46.9,30.09,North,5,2.0,11.0,61,0.00,,,0.00,Wunderground v.1.15,2013-04-23 22:39:00,
2013-04-23 18:40:00,60.3,46.8,30.09,NNE,29,3.0,5.0,61,0.00,,,0.00,Wunderground v.1.15,2013-04-23 22:40:00,
2013-04-23 18:41:00,60.3,46.8,30.08,NNE,30,2.0,8.0,61,0.00,,,0.00,Wunderground v.1.15,2013-04-23 22:41:00,
2013-04-23 18:44:00,60.2,46.7,30.08,NNE,16,5.0,8.0,61,0.00,,,0.00,Wunderground v.1.15,2013-04-23 22:44:00,
2013-04-23 18:45:00,60.1,46.6,30.08,NNW,332,6.0,10.0,61,0.00,,,0.00,Wunderground v.1.15,2013-04-23 22:45:00,
2013-04-23 18:46:00,60.1,46.2,30.08,NNE,18,10.0,11.0,60,0.00,,,0.00,Wunderground v.1.15,2013-04-23 22:46:00,
2013-04-23 18:49:00,60.0,46.5,30.09,North,355,5.0,5.0,61,0.00,,,0.00,Wunderground v.1.15,2013-04-23 22:49:00,
2013-04-23 18:51:00,59.9,46.8,30.09,North,6,4.0,9.0,62,0.00,,,0.00,Wunderground v.1.15,2013-04-23 22:51:00,
2013-04-23 18:52:00,59.9,46.8,30.09,NNW,330,4.0,9.0,62,0.00,,,0.00,Wunderground v.1.15,2013-04-23 22:52:00,
2013-04-23 18:54:00,59.8,46.3,30.09,North,356,5.0,11.0,61,0.00,,,0.00,Wunderground v.1.15,2013-04-23 22:54:00,
2013-04-23 18:55:00,59.8,46.3,30.09,NE,51,9.0,11.0,61,0.00,,,0.00,Wunderground v.1.15,2013-04-23 22:55:00,
2013-04-23 18:56:00,59.7,46.2,30.09,NNE,25,8.0,11.0,61,0.00,,,0.00,Wunderground v.1.15,2013-04-23 22:56:00,
2013-04-23 18:57:00,59.7,46.2,30.09,NNE,25,9.0,11.0,61,0.00,,,0.00,Wunderground v.1.15,2013-04-23 22:57:00,
2013-04-23 19:00:00,59.6,46.6,30.09,NNE,25,3.0,7.0,62,0.00,,,0.00,Wunderground v.1.15,2013-04-23 23:00:00,
2013-04-23 19:01:00,59.6,46.6,30.09,NNE,29,5.0,7.0,62,0.00,,,0.00,Wunderground v.1.15,2013-04-23 23:01:00,
2013-04-23 19:02:00,59.6,46.6,30.09,NNE,14,4.0,7.0,62,0.00,,,0.00,Wunderground v.1.15,2013-04-23 23:02:00,
2013-04-23 19:03:00,59.5,46.5,30.09,NNE,13,5.0,7.0,62,0.00,,,0.00,Wunderground v.1.15,2013-04-23 23:03:00,
2013-04-23 19:06:00,59.4,46.4,30.09,NNW,343,3.0,10.0,62,0.00,,,0.00,Wunderground v.1.15,2013-04-23 23:06:00,
2013-04-23 19:07:00,59.5,46.5,30.09,NE,41,7.0,10.0,62,0.00,,,0.00,Wunderground v.1.15,2013-04-23 23:07:00,
2013-04-23 19:09:00,59.4,46.8,30.09,NNE,20,6.0,10.0,63,0.00,,,0.00,Wunderground v.1.15,2013-04-23 23:09:00,
2013-04-23 19:11:00,59.3,46.3,30.09,North,5,5.0,8.0,62,0.00,,,0.00,Wunderground v.1.15,2013-04-23 23:11:00,
2013-04-23 19:12:00,59.3,46.3,30.09,NNE,20,2.0,8.0,62,0.00,,,0.00,Wunderground v.1.15,2013-04-23 23:12:00,
2013-04-23 19:13:00,59.2,46.6,30.09,NNE,33,9.0,9.0,63,0.00,,,0.00,Wunderground v.1.15,2013-04-23 23:13:00,
2013-04-23 19:14:00,59.2,46.2,30.09,NNE,16,6.0,9.0,62,0.00,,,0.00,Wunderground v.1.15,2013-04-23 23:14:00,
2013-04-23 19:16:00,59.1,46.1,30.09,NE,51,4.0,9.0,62,0.00,,,0.00,Wunderground v.1.15,2013-04-23 23:16:00,
2013-04-23 19:17:00,59.0,46.0,30.09,NNW,347,6.0,9.0,62,0.00,,,0.00,Wunderground v.1.15,2013-04-23 23:17:00,
2013-04-23 19:18:00,59.0,46.4,30.09,NNE,16,5.0,9.0,63,0.00,,,0.00,Wunderground v.1.15,2013-04-23 23:18:00,
2013-04-23 19:20:00,58.9,45.9,30.09,NNW,347,2.0,8.0,62,0.00,,,0.00,Wunderground v.1.15,2013-04-23 23:20:00,
2013-04-23 19:21:00,58.8,46.2,30.10,North,8,7.0,8.0,63,0.00,,,0.00,Wunderground v.1.15,2013-04-23 23:21:00,
2013-04-23 19:23:00,58.7,46.1,30.10,NNE,15,4.0,8.0,63,0.00,,,0.00,Wunderground v.1.15,2013-04-23 23:23:00,
2013-04-23 19:24:00,58.6,46.0,30.09,NW,323,4.0,8.0,63,0.00,,,0.00,Wunderground v.1.15,2013-04-23 23:24:00,
2013-04-23 19:25:00,58.6,46.0,30.09,NNW,343,4.0,8.0,63,0.00,,,0.00,Wunderground v.1.15,2013-04-23 23:25:00,
2013-04-23 19:27:00,58.5,45.9,30.10,North,6,6.0,8.0,63,0.00,,,0.00,Wunderground v.1.15,2013-04-23 23:27:00,
2013-04-23 19:28:00,58.4,45.8,30.09,NNE,16,9.0,9.0,63,0.00,,,0.00,Wunderground v.1.15,2013-04-23 23:28:00,
2013-04-23 19:29:00,58.4,45.8,30.10,NE,35,5.0,9.0,63,0.00,,,0.00,Wunderground v.1.15,2013-04-23 23:29:00,
2013-04-23 19:30:00,58.3,45.8,30.10,NNE,13,4.0,7.0,63,0.00,,,0.00,Wunderground v.1.15,2013-04-23 23:30:00,
2013-04-23 19:32:00,58.2,45.7,30.10,NNE,24,3.0,11.0,63,0.00,,,0.00,Wunderground v.1.15,2013-04-23 23:32:00,
2013-04-23 19:34:00,58.1,45.6,30.10,North,11,4.0,11.0,63,0.00,,,0.00,Wunderground v.1.15,2013-04-23 23:34:00,
2013-04-23 19:35:00,57.9,45.8,30.10,NNE,22,7.0,11.0,64,0.00,,,0.00,Wunderground v.1.15,2013-04-23 23:35:00,
2013-04-23 19:38:00,57.8,45.7,30.10,NNE,20,4.0,11.0,64,0.00,,,0.00,Wunderground v.1.15,2013-04-23 23:38:00,
2013-04-23 19:39:00,57.8,45.7,30.10,NNE,13,6.0,11.0,64,0.00,,,0.00,Wunderground v.1.15,2013-04-23 23:39:00,
2013-04-23 19:41:00,57.6,45.5,30.10,NNE,25,3.0,6.0,64,0.00,,,0.00,Wunderground v.1.15,2013-04-23 23:41:00,
2013-04-23 19:43:00,57.5,45.4,30.10,NNW,343,2.0,7.0,64,0.00,,,0.00,Wunderground v.1.15,2013-04-23 23:43:00,
2013-04-23 19:44:00,57.4,45.7,30.10,NE,43,4.0,7.0,65,0.00,,,0.00,Wunderground v.1.15,2013-04-23 23:44:00,
2013-04-23 19:45:00,57.4,45.7,30.10,NNE,20,2.0,7.0,65,0.00,,,0.00,Wunderground v.1.15,2013-04-23 23:45:00,
2013-04-23 19:46:00,57.4,45.7,30.10,NNE,20,1.0,7.0,65,0.00,,,0.00,Wunderground v.1.15,2013-04-23 23:46:00,
2013-04-23 19:48:00,57.1,45.4,30.10,North,6,5.0,7.0,65,0.00,,,0.00,Wunderground v.1.15,2013-04-23 23:48:00,
2013-04-23 19:50:00,57.1,45.4,30.11,North,8,2.0,3.0,65,0.00,,,0.00,Wunderground v.1.15,2013-04-23 23:50:00,
2013-04-23 19:51:00,57.0,45.3,30.11,NNW,331,3.0,5.0,65,0.00,,,0.00,Wunderground v.1.15,2013-04-23 23:51:00,
2013-04-23 19:53:00,56.8,45.6,30.11,NNW,347,3.0,6.0,66,0.00,,,0.00,Wunderground v.1.15,2013-04-23 23:53:00,
2013-04-23 19:55:00,56.8,45.6,30.10,North,1,2.0,6.0,66,0.00,,,0.00,Wunderground v.1.15,2013-04-23 23:55:00,
2013-04-23 19:56:00,56.7,45.5,30.11,NNE,16,2.0,6.0,66,0.00,,,0.00,Wunderground v.1.15,2013-04-23 23:56:00,
2013-04-23 19:59:00,56.5,45.3,30.11,North,356,2.0,6.0,66,0.00,,,0.00,Wunderground v.1.15,2013-04-23 23:59:00,
2013-04-23 20:00:00,56.4,45.2,30.11,North,351,3.0,5.0,66,0.00,,,0.00,Wunderground v.1.15,2013-04-24 00:00:00,
2013-04-23 20:01:00,56.4,45.6,30.11,North,8,7.0,7.0,67,0.00,,,0.00,Wunderground v.1.15,2013-04-24 00:01:00,
2013-04-23 20:02:00,56.3,45.5,30.11,North,4,4.0,7.0,67,0.00,,,0.00,Wunderground v.1.15,2013-04-24 00:02:00,
2013-04-23 20:04:00,56.2,45.4,30.11,North,354,1.0,7.0,67,0.00,,,0.00,Wunderground v.1.15,2013-04-24 00:04:00,
2013-04-23 20:06:00,56.1,45.3,30.11,North,355,1.0,7.0,67,0.00,,,0.00,Wunderground v.1.15,2013-04-24 00:06:00,
2013-04-23 20:07:00,56.0,45.2,30.11,North,1,3.0,7.0,67,0.00,,,0.00,Wunderground v.1.15,2013-04-24 00:07:00,
2013-04-23 20:10:00,55.9,45.1,30.11,North,359,5.0,5.0,67,0.00,,,0.00,Wunderground v.1.15,2013-04-24 00:10:00,
2013-04-23 20:11:00,55.9,45.1,30.11,North,357,2.0,5.0,67,0.00,,,0.00,Wunderground v.1.15,2013-04-24 00:11:00,
2013-04-23 20:12:00,55.8,45.0,30.11,NNE,13,3.0,5.0,67,0.00,,,0.00,Wunderground v.1.15,2013-04-24 00:12:00,
2013-04-23 20:13:00,55.8,45.4,30.11,NNW,340,2.0,5.0,68,0.00,,,0.00,Wunderground v.1.15,2013-04-24 00:13:00,
2013-04-23 20:16:00,55.7,45.3,30.11,North,353,5.0,5.0,68,0.00,,,0.00,Wunderground v.1.15,2013-04-24 00:16:00,
2013-04-23 20:17:00,55.6,45.2,30.11,NNW,344,5.0,5.0,68,0.00,,,0.00,Wunderground v.1.15,2013-04-24 00:17:00,
2013-04-23 20:18:00,55.6,45.2,30.11,NNE,14,3.0,5.0,68,0.00,,,0.00,Wunderground v.1.15,2013-04-24 00:18:00,
2013-04-23 20:21:00,55.5,45.1,30.11,North,5,2.0,4.0,68,0.00,,,0.00,Wunderground v.1.15,2013-04-24 00:21:00,
2013-04-23 20:22:00,55.4,45.0,30.11,NNE,27,3.0,4.0,68,0.00,,,0.00,Wunderground v.1.15,2013-04-24 00:22:00,
2013-04-23 20:23:00,55.4,45.4,30.11,NW,325,2.0,4.0,69,0.00,,,0.00,Wunderground v.1.15,2013-04-24 00:23:00,
2013-04-23 20:26:00,55.2,45.2,30.11,North,349,3.0,6.0,69,0.00,,,0.00,Wunderground v.1.15,2013-04-24 00:26:00,
2013-04-23 20:27:00,55.1,45.1,30.11,NNW,341,2.0,6.0,69,0.00,,,0.00,Wunderground v.1.15,2013-04-24 00:27:00,
2013-04-23 20:29:00,55.1,45.1,30.11,NW,323,2.0,6.0,69,0.00,,,0.00,Wunderground v.1.15,2013-04-24 00:29:00,
2013-04-23 20:31:00,55.0,45.0,30.11,NNW,345,2.0,6.0,69,0.00,,,0.00,Wunderground v.1.15,2013-04-24 00:31:00,
2013-04-23 20:32:00,55.0,45.0,30.11,North,354,1.0,6.0,69,0.00,,,0.00,Wunderground v.1.15,2013-04-24 00:32:00,
2013-04-23 20:33:00,55.0,45.0,30.11,North,3,2.0,6.0,69,0.00,,,0.00,Wunderground v.1.15,2013-04-24 00:33:00,
2013-04-23 20:34:00,54.9,44.9,30.11,NW,323,2.0,6.0,69,0.00,,,0.00,Wunderground v.1.15,2013-04-24 00:34:00,
2013-04-23 20:36:00,54.9,45.3,30.11,NNW,336,2.0,6.0,70,0.00,,,0.00,Wunderground v.1.15,2013-04-24 00:36:00,
2013-04-23 20:37:00,54.9,45.3,30.11,NNW,346,1.0,6.0,70,0.00,,,0.00,Wunderground v.1.15,2013-04-24 00:37:00,
2013-04-23 20:38:00,54.9,45.3,30.11,NNW,327,1.0,6.0,70,0.00,,,0.00,Wunderground v.1.15,2013-04-24 00:38:00,
2013-04-23 20:39:00,54.8,45.2,30.11,NNW,335,1.0,6.0,70,0.00,,,0.00,Wunderground v.1.15,2013-04-24 00:39:00,
2013-04-23 20:40:00,54.8,45.2,30.11,NNW,340,1.0,4.0,70,0.00,,,0.00,Wunderground v.1.15,2013-04-24 00:40:00,
2013-04-23 20:42:00,54.7,45.1,30.11,NW,319,2.0,4.0,70,0.00,,,0.00,Wunderground v.1.15,2013-04-24 00:42:00,
2013-04-23 20:43:00,54.7,45.1,30.11,North,352,1.0,5.0,70,0.00,,,0.00,Wunderground v.1.15,2013-04-24 00:43:00,
2013-04-23 20:44:00,54.6,45.0,30.11,North,353,1.0,5.0,70,0.00,,,0.00,Wunderground v.1.15,2013-04-24 00:44:00,
2013-04-23 20:45:00,54.5,44.9,30.11,WNW,295,2.0,5.0,70,0.00,,,0.00,Wunderground v.1.15,2013-04-24 00:45:00,
2013-04-23 20:47:00,54.5,45.3,30.11,NNW,328,1.0,5.0,71,0.00,,,0.00,Wunderground v.1.15,2013-04-24 00:47:00,
2013-04-23 20:49:00,54.3,45.1,30.11,NNW,343,1.0,5.0,71,0.00,,,0.00,Wunderground v.1.15,2013-04-24 00:49:00,
2013-04-23 20:51:00,54.2,45.0,30.11,North,359,2.0,2.0,71,0.00,,,0.00,Wunderground v.1.15,2013-04-24 00:51:00,
2013-04-23 20:52:00,54.2,45.0,30.11,NNW,340,1.0,3.0,71,0.00,,,0.00,Wunderground v.1.15,2013-04-24 00:52:00,
2013-04-23 20:54:00,54.1,44.9,30.11,NNE,16,3.0,3.0,71,0.00,,,0.00,Wunderground v.1.15,2013-04-24 00:54:00,
2013-04-23 20:55:00,54.1,44.9,30.11,NNW,345,1.0,3.0,71,0.00,,,0.00,Wunderground v.1.15,2013-04-24 00:55:00,
2013-04-23 20:56:00,54.0,45.2,30.11,North,353,2.0,3.0,72,0.00,,,0.00,Wunderground v.1.15,2013-04-24 00:56:00,
2013-04-23 20:57:00,54.0,45.2,30.11,North,356,1.0,3.0,72,0.00,,,0.00,Wunderground v.1.15,2013-04-24 00:57:00,
2013-04-23 20:59:00,53.9,45.1,30.11,North,4,1.0,2.0,72,0.00,,,0.00,Wunderground v.1.15,2013-04-24 00:59:00,
2013-04-23 21:01:00,53.8,45.0,30.11,North,11,1.0,2.0,72,0.00,,,0.00,Wunderground v.1.15,2013-04-24 01:01:00,
2013-04-23 21:02:00,53.8,45.0,30.11,NW,311,1.0,2.0,72,0.00,,,0.00,Wunderground v.1.15,2013-04-24 01:02:00,
2013-04-23 21:04:00,53.7,44.9,30.11,NNW,338,1.0,3.0,72,0.00,,,0.00,Wunderground v.1.15,2013-04-24 01:04:00,
2013-04-23 21:06:00,53.6,44.8,30.11,NNE,15,2.0,3.0,72,0.00,,,0.00,Wunderground v.1.15,2013-04-24 01:06:00,
2013-04-23 21:08:00,53.6,45.2,30.11,North,355,0.0,3.0,73,0.00,,,0.00,Wunderground v.1.15,2013-04-24 01:08:00,
2013-04-23 21:09:00,53.5,45.1,30.12,NNE,22,3.0,4.0,73,0.00,,,0.00,Wunderground v.1.15,2013-04-24 01:09:00,
2013-04-23 21:11:00,53.4,45.0,30.12,NNW,342,1.0,4.0,73,0.00,,,0.00,Wunderground v.1.15,2013-04-24 01:11:00,
2013-04-23 21:12:00,53.4,45.0,30.12,NNW,334,1.0,4.0,73,0.00,,,0.00,Wunderground v.1.15,2013-04-24 01:12:00,
2013-04-23 21:13:00,53.3,44.9,30.12,NNW,335,1.0,4.0,73,0.00,,,0.00,Wunderground v.1.15,2013-04-24 01:13:00,
2013-04-23 21:14:00,53.3,44.9,30.12,NNW,332,3.0,4.0,73,0.00,,,0.00,Wunderground v.1.15,2013-04-24 01:14:00,
2013-04-23 21:16:00,53.2,44.8,30.12,NNW,333,1.0,4.0,73,0.00,,,0.00,Wunderground v.1.15,2013-04-24 01:16:00,
2013-04-23 21:17:00,53.1,44.7,30.12,NNW,332,1.0,4.0,73,0.00,,,0.00,Wunderground v.1.15,2013-04-24 01:17:00,
2013-04-23 21:19:00,53.1,44.7,30.12,NW,323,0.0,4.0,73,0.00,,,0.00,Wunderground v.1.15,2013-04-24 01:19:00,
2013-04-23 21:20:00,53.0,44.9,30.12,NE,41,1.0,2.0,74,0.00,,,0.00,Wunderground v.1.15,2013-04-24 01:20:00,
2013-04-23 21:21:00,53.0,44.9,30.12,NE,41,0.0,2.0,74,0.00,,,0.00,Wunderground v.1.15,2013-04-24 01:21:00,
2013-04-23 21:22:00,52.9,44.8,30.11,NNW,345,2.0,2.0,74,0.00,,,0.00,Wunderground v.1.15,2013-04-24 01:22:00,
2013-04-23 21:24:00,52.8,44.7,30.12,NNW,329,1.0,3.0,74,0.00,,,0.00,Wunderground v.1.15,2013-04-24 01:24:00,
2013-04-23 21:26:00,52.8,44.7,30.11,NNW,340,1.0,3.0,74,0.00,,,0.00,Wunderground v.1.15,2013-04-24 01:26:00,
2013-04-23 21:27:00,52.7,44.6,30.11,NNW,335,1.0,3.0,74,0.00,,,0.00,Wunderground v.1.15,2013-04-24 01:27:00,
2013-04-23 21:28:00,52.7,44.6,30.11,NNE,27,2.0,3.0,74,0.00,,,0.00,Wunderground v.1.15,2013-04-24 01:28:00,
2013-04-23 21:29:00,52.6,44.5,30.12,North,5,1.0,3.0,74,0.00,,,0.00,Wunderground v.1.15,2013-04-24 01:29:00,
2013-04-23 21:31:00,52.6,44.5,30.12,North,11,0.0,1.0,74,0.00,,,0.00,Wunderground v.1.15,2013-04-24 01:31:00,
2013-04-23 21:32:00,52.5,44.4,30.12,North,355,3.0,3.0,74,0.00,,,0.00,Wunderground v.1.15,2013-04-24 01:32:00,
2013-04-23 21:33:00,52.4,44.7,30.12,NW,317,3.0,3.0,75,0.00,,,0.00,Wunderground v.1.15,2013-04-24 01:33:00,
2013-04-23 21:34:00,52.4,44.7,30.12,NNE,13,3.0,3.0,75,0.00,,,0.00,Wunderground v.1.15,2013-04-24 01:34:00,
2013-04-23 21:37:00,52.4,44.7,30.12,NNW,330,1.0,3.0,75,0.00,,,0.00,Wunderground v.1.15,2013-04-24 01:37:00,
2013-04-23 21:38:00,52.4,44.7,30.12,NNE,18,1.0,3.0,75,0.00,,,0.00,Wunderground v.1.15,2013-04-24 01:38:00,
2013-04-23 21:39:00,52.3,44.6,30.12,NNE,18,0.0,3.0,75,0.00,,,0.00,Wunderground v.1.15,2013-04-24 01:39:00,
2013-04-23 21:40:00,52.3,44.6,30.12,WNW,290,1.0,2.0,75,0.00,,,0.00,Wunderground v.1.15,2013-04-24 01:40:00,
2013-04-23 21:42:00,52.2,44.5,30.12,West,280,1.0,2.0,75,0.00,,,0.00,Wunderground v.1.15,2013-04-24 01:42:00,
2013-04-23 21:43:00,52.2,44.5,30.12,NW,323,1.0,3.0,75,0.00,,,0.00,Wunderground v.1.15,2013-04-24 01:43:00,
2013-04-23 21:45:00,52.1,44.4,30.12,NW,323,0.0,3.0,75,0.00,,,0.00,Wunderground v.1.15,2013-04-24 01:45:00,
2013-04-23 21:46:00,52.0,44.3,30.12,NW,325,1.0,3.0,75,0.00,,,0.00,Wunderground v.1.15,2013-04-24 01:46:00,
2013-04-23 21:47:00,52.0,44.3,30.12,NNW,338,2.0,4.0,75,0.00,,,0.00,Wunderground v.1.15,2013-04-24 01:47:00,
2013-04-23 21:48:00,52.0,44.3,30.12,NW,321,1.0,4.0,75,0.00,,,0.00,Wunderground v.1.15,2013-04-24 01:48:00,
2013-04-23 21:50:00,51.9,44.6,30.12,NNW,338,1.0,3.0,76,0.00,,,0.00,Wunderground v.1.15,2013-04-24 01:50:00,
2013-04-23 21:51:00,51.9,44.6,30.12,NNW,338,1.0,3.0,76,0.00,,,0.00,Wunderground v.1.15,2013-04-24 01:51:00,
2013-04-23 21:53:00,51.9,44.6,30.12,North,355,1.0,4.0,76,0.00,,,0.00,Wunderground v.1.15,2013-04-24 01:53:00,
2013-04-23 21:55:00,51.8,44.5,30.12,NW,325,0.0,4.0,76,0.00,,,0.00,Wunderground v.1.15,2013-04-24 01:55:00,
2013-04-23 21:56:00,51.8,44.5,30.12,NNE,15,1.0,4.0,76,0.00,,,0.00,Wunderground v.1.15,2013-04-24 01:56:00,
2013-04-23 21:58:00,51.7,44.4,30.12,North,9,0.0,4.0,76,0.00,,,0.00,Wunderground v.1.15,2013-04-24 01:58:00,
2013-04-23 21:59:00,51.6,44.3,30.12,NNW,328,0.0,1.0,76,0.00,,,0.00,Wunderground v.1.15,2013-04-24 01:59:00,
2013-04-23 22:00:00,51.6,44.3,30.12,North,355,1.0,2.0,76,0.00,,,0.00,Wunderground v.1.15,2013-04-24 02:00:00,
2013-04-23 22:01:00,51.5,44.2,30.12,North,354,1.0,2.0,76,0.00,,,0.00,Wunderground v.1.15,2013-04-24 02:01:00,
2013-04-23 22:03:00,51.4,44.1,30.11,WNW,302,0.0,2.0,76,0.00,,,0.00,Wunderground v.1.15,2013-04-24 02:03:00,
2013-04-23 22:04:00,51.4,44.1,30.12,WNW,302,0.0,2.0,76,0.00,,,0.00,Wunderground v.1.15,2013-04-24 02:04:00,
2013-04-23 22:06:00,51.3,44.3,30.11,WNW,302,1.0,2.0,77,0.00,,,0.00,Wunderground v.1.15,2013-04-24 02:06:00,
2013-04-23 22:07:00,51.2,44.2,30.12,WNW,302,1.0,2.0,77,0.00,,,0.00,Wunderground v.1.15,2013-04-24 02:07:00,
2013-04-23 22:09:00,51.1,44.1,30.11,WNW,302,1.0,2.0,77,0.00,,,0.00,Wunderground v.1.15,2013-04-24 02:09:00,
2013-04-23 22:12:00,50.8,44.2,30.11,WNW,302,0.0,1.0,78,0.00,,,0.00,Wunderground v.1.15,2013-04-24 02:12:00,
2013-04-23 22:14:00,50.6,44.0,30.11,WNW,302,1.0,1.0,78,0.00,,,0.00,Wunderground v.1.15,2013-04-24 02:14:00,
2013-04-23 22:15:00,50.6,44.0,30.11,WNW,302,0.0,1.0,78,0.00,,,0.00,Wunderground v.1.15,2013-04-24 02:15:00,
2013-04-23 22:18:00,50.5,43.9,30.11,WNW,302,0.0,1.0,78,0.00,,,0.00,Wunderground v.1.15,2013-04-24 02:18:00,
2013-04-23 22:19:00,50.4,43.8,30.11,WNW,302,0.0,1.0,78,0.00,,,0.00,Wunderground v.1.15,2013-04-24 02:19:00,
2013-04-23 22:21:00,50.3,43.7,30.11,WNW,302,0.0,0.0,78,0.00,,,0.00,Wunderground v.1.15,2013-04-24 02:21:00,
2013-04-23 22:25:00,49.9,43.6,30.11,WNW,302,0.0,1.0,79,0.00,,,0.00,Wunderground v.1.15,2013-04-24 02:25:00,
2013-04-23 22:26:00,49.8,43.9,30.11,WNW,302,1.0,1.0,80,0.00,,,0.00,Wunderground v.1.15,2013-04-24 02:26:00,
2013-04-23 22:27:00,49.7,43.8,30.11,WNW,302,0.0,1.0,80,0.00,,,0.00,Wunderground v.1.15,2013-04-24 02:27:00,
2013-04-23 22:30:00,49.7,43.8,30.11,WNW,302,0.0,1.0,80,0.00,,,0.00,Wunderground v.1.15,2013-04-24 02:30:00,
2013-04-23 22:31:00,49.7,43.8,30.11,WNW,302,1.0,1.0,80,0.00,,,0.00,Wunderground v.1.15,2013-04-24 02:31:00,
2013-04-23 22:32:00,49.7,43.8,30.11,WNW,302,1.0,1.0,80,0.00,,,0.00,Wunderground v.1.15,2013-04-24 02:32:00,
2013-04-23 22:37:00,49.8,43.9,30.10,WNW,302,0.0,1.0,80,0.00,,,0.00,Wunderground v.1.15,2013-04-24 02:37:00,
2013-04-23 22:38:00,49.7,43.5,30.10,WNW,302,0.0,1.0,79,0.00,,,0.00,Wunderground v.1.15,2013-04-24 02:38:00,
2013-04-23 22:42:00,49.2,43.3,30.10,WNW,302,0.0,1.0,80,0.00,,,0.00,Wunderground v.1.15,2013-04-24 02:42:00,
2013-04-23 22:44:00,48.9,43.0,30.10,WNW,302,0.0,1.0,80,0.00,,,0.00,Wunderground v.1.15,2013-04-24 02:44:00,
2013-04-23 22:47:00,48.6,43.0,30.10,WNW,302,0.0,1.0,81,0.00,,,0.00,Wunderground v.1.15,2013-04-24 02:47:00,
2013-04-23 22:48:00,48.5,43.3,30.10,WNW,302,1.0,1.0,82,0.00,,,0.00,Wunderground v.1.15,2013-04-24 02:48:00,
2013-04-23 22:50:00,48.5,43.3,30.10,WNW,302,0.0,1.0,82,0.00,,,0.00,Wunderground v.1.15,2013-04-24 02:50:00,
2013-04-23 22:53:00,48.4,43.5,30.10,WNW,302,0.0,1.0,83,0.00,,,0.00,Wunderground v.1.15,2013-04-24 02:53:00,
2013-04-23 22:55:00,48.3,43.4,30.10,WNW,302,0.0,1.0,83,0.00,,,0.00,Wunderground v.1.15,2013-04-24 02:55:00,
2013-04-23 22:56:00,48.3,43.4,30.09,WNW,302,0.0,1.0,83,0.00,,,0.00,Wunderground v.1.15,2013-04-24 02:56:00,
2013-04-23 22:59:00,48.2,43.3,30.09,WNW,302,1.0,1.0,83,0.00,,,0.00,Wunderground v.1.15,2013-04-24 02:59:00,
2013-04-23 23:00:00,48.2,43.3,30.09,WNW,302,0.0,1.0,83,0.00,,,0.00,Wunderground v.1.15,2013-04-24 03:00:00,
2013-04-23 23:01:00,48.1,43.2,30.09,WNW,302,1.0,1.0,83,0.00,,,0.00,Wunderground v.1.15,2013-04-24 03:01:00,
2013-04-23 23:04:00,47.9,43.0,30.09,WNW,302,0.0,1.0,83,0.00,,,0.00,Wunderground v.1.15,2013-04-24 03:04:00,
2013-04-23 23:06:00,47.7,42.8,30.09,WNW,302,0.0,1.0,83,0.00,,,0.00,Wunderground v.1.15,2013-04-24 03:06:00,
2013-04-23 23:09:00,47.5,42.6,30.09,WNW,302,0.0,1.0,83,0.00,,,0.00,Wunderground v.1.15,2013-04-24 03:09:00,
2013-04-23 23:12:00,47.2,42.6,30.10,WNW,302,0.0,0.0,84,0.00,,,0.00,Wunderground v.1.15,2013-04-24 03:12:00,
2013-04-23 23:13:00,47.1,42.5,30.10,WNW,302,0.0,0.0,84,0.00,,,0.00,Wunderground v.1.15,2013-04-24 03:13:00,
2013-04-23 23:14:00,46.9,42.3,30.10,WNW,302,0.0,0.0,84,0.00,,,0.00,Wunderground v.1.15,2013-04-24 03:14:00,
2013-04-23 23:15:00,46.9,42.3,30.09,WNW,302,0.0,0.0,84,0.00,,,0.00,Wunderground v.1.15,2013-04-24 03:15:00,
2013-04-23 23:18:00,46.6,42.3,30.09,WNW,302,0.0,0.0,85,0.00,,,0.00,Wunderground v.1.15,2013-04-24 03:18:00,
2013-04-23 23:19:00,46.5,42.2,30.09,WNW,302,0.0,0.0,85,0.00,,,0.00,Wunderground v.1.15,2013-04-24 03:19:00,
2013-04-23 23:20:00,46.4,42.1,30.09,WNW,302,0.0,0.0,85,0.00,,,0.00,Wunderground v.1.15,2013-04-24 03:20:00,
2013-04-23 23:23:00,46.2,42.2,30.09,WNW,302,0.0,0.0,86,0.00,,,0.00,Wunderground v.1.15,2013-04-24 03:23:00,
2013-04-23 23:25:00,46.1,42.1,30.09,WNW,302,0.0,0.0,86,0.00,,,0.00,Wunderground v.1.15,2013-04-24 03:25:00,
2013-04-23 23:27:00,46.0,42.0,30.09,WNW,302,0.0,0.0,86,0.00,,,0.00,Wunderground v.1.15,2013-04-24 03:27:00,
2013-04-23 23:28:00,45.9,42.2,30.09,WNW,302,0.0,0.0,87,0.00,,,0.00,Wunderground v.1.15,2013-04-24 03:28:00,
2013-04-23 23:31:00,45.8,42.2,30.09,WNW,302,0.0,0.0,87,0.00,,,0.00,Wunderground v.1.15,2013-04-24 03:31:00,
2013-04-23 23:34:00,45.6,42.0,30.09,WNW,302,0.0,0.0,87,0.00,,,0.00,Wunderground v.1.15,2013-04-24 03:34:00,
2013-04-23 23:37:00,45.4,41.8,30.09,WNW,302,0.0,0.0,87,0.00,,,0.00,Wunderground v.1.15,2013-04-24 03:37:00,
2013-04-23 23:39:00,45.3,41.7,30.09,WNW,302,0.0,0.0,87,0.00,,,0.00,Wunderground v.1.15,2013-04-24 03:39:00,
2013-04-23 23:40:00,45.2,41.6,30.09,WNW,302,0.0,0.0,87,0.00,,,0.00,Wunderground v.1.15,2013-04-24 03:40:00,
2013-04-23 23:42:00,45.0,41.4,30.09,WNW,302,0.0,0.0,87,0.00,,,0.00,Wunderground v.1.15,2013-04-24 03:42:00,
2013-04-23 23:45:00,44.8,41.5,30.09,WNW,302,0.0,0.0,88,0.00,,,0.00,Wunderground v.1.15,2013-04-24 03:45:00,
2013-04-23 23:47:00,44.7,41.4,30.09,WNW,302,0.0,0.0,88,0.00,,,0.00,Wunderground v.1.15,2013-04-24 03:47:00,
2013-04-23 23:48:00,44.7,41.4,30.09,WNW,302,0.0,0.0,88,0.00,,,0.00,Wunderground v.1.15,2013-04-24 03:48:00,
2013-04-23 23:50:00,44.7,41.7,30.09,WNW,302,0.0,0.0,89,0.00,,,0.00,Wunderground v.1.15,2013-04-24 03:50:00,
2013-04-23 23:52:00,44.7,41.7,30.09,WNW,302,0.0,0.0,89,0.00,,,0.00,Wunderground v.1.15,2013-04-24 03:52:00,
2013-04-23 23:53:00,44.6,41.6,30.09,WNW,302,0.0,0.0,89,0.00,,,0.00,Wunderground v.1.15,2013-04-24 03:53:00,
2013-04-23 23:56:00,44.4,41.4,30.09,WNW,302,0.0,0.0,89,0.00,,,0.00,Wunderground v.1.15,2013-04-24 03:56:00,
2013-04-23 23:59:00,44.4,41.4,30.09,WNW,302,0.0,0.0,89,0.00,,,0.00,Wunderground v.1.15,2013-04-24 03:59:00,